GFSMW_500_spd_078.txt.gz
Wind_Speed
36 37 37 38 36 30 30 29 25 22 29 21 22 20 18 18 20 24 27 24 25 19 27 23 28 27 33 37 44 42 40 33 28 29 23 24 26 26 25 28 27 34 34
32 36 33 34 32 28 31 26 23 22 25 22 20 16 15 16 15 17 18 16 19 24 26 30 26 27 33 35 40 39 38 30 28 30 26 24 24 25 25 28 31 32 34
31 33 33 33 30 27 31 25 21 23 23 23 17 14 13 12 13 15 13 8 14 22 27 32 29 30 32 32 37 37 23 24 22 20 19 22 24 29 28 30 28 32 36
29 31 30 30 27 30 28 25 20 23 23 23 15 12 11 10 7 9 13 9 9 15 20 30 32 32 31 30 32 23 25 21 19 20 18 19 23 28 29 30 30 30 34
31 31 30 27 31 30 28 27 20 24 25 22 15 12 10 8 5 7 6 9 6 10 22 27 29 31 32 33 32 25 24 24 23 21 22 22 24 29 30 31 33 31 32
29 30 28 32 29 31 29 23 22 25 26 20 16 12 10 7 2 3 4 4 4 9 10 19 27 31 29 28 26 28 28 30 28 25 23 26 30 29 31 32 32 31 34
29 31 32 33 28 28 26 23 24 26 25 21 16 13 9 6 1 1 3 6 4 5 11 19 20 24 26 30 31 30 31 27 27 27 27 26 27 31 31 31 30 25 30
30 31 35 34 29 30 27 23 24 25 23 21 16 14 11 8 4 2 2 8 6 5 7 12 18 20 24 26 30 32 35 28 25 22 26 29 30 32 32 32 33 31 31
33 34 32 32 33 31 31 27 25 23 21 20 18 17 14 11 8 5 2 3 8 4 4 9 21 24 25 23 29 29 29 28 26 23 25 28 29 31 35 38 36 36 34
35 36 34 39 37 36 35 28 28 23 19 17 19 18 16 14 12 9 6 4 5 4 3 3 11 15 16 12 17 27 23 25 28 30 28 31 32 34 38 38 31 35 37
37 38 38 34 42 37 37 30 30 24 20 15 15 17 18 18 17 15 12 11 8 4 2 4 4 4 8 12 12 16 20 21 26 30 29 27 28 31 29 29 28 27 30
36 36 38 32 41 38 37 33 32 24 19 17 17 18 19 21 18 17 15 14 12 9 7 8 8 8 9 11 12 12 12 12 13 16 16 18 21 23 26 25 26 25 27
38 38 35 36 40 38 36 37 31 23 22 21 22 21 22 22 20 18 18 18 16 14 12 11 11 13 16 16 16 16 16 16 16 16 17 19 23 23 26 28 29 30 32
42 41 37 36 41 38 38 39 37 27 27 27 24 23 24 24 23 21 20 20 19 18 17 16 17 17 17 17 17 18 18 19 20 21 23 24 25 26 28 30 30 32 34
37 42 36 37 46 45 44 45 38 30 32 34 28 26 26 25 23 22 21 19 17 20 21 20 21 21 20 20 22 23 23 24 25 27 28 30 31 33 34 36 36 39 40
37 38 37 35 44 49 48 45 39 39 41 38 32 29 29 27 26 24 21 19 18 18 18 19 21 22 21 23 25 27 28 29 31 31 33 36 37 39 40 42 43 45 48
36 38 38 40 37 28 50 48 44 45 43 40 35 32 33 34 34 30 24 24 22 21 21 21 21 22 23 24 26 28 31 33 35 36 37 38 39 40 42 44 46 49 53
37 44 43 39 41 39 38 44 44 44 42 38 36 35 30 38 31 27 26 26 26 25 24 24 24 25 28 28 29 30 33 35 36 37 39 40 42 45 47 49 51 53 54
42 26 25 37 44 46 44 43 44 44 43 41 40 38 37 45 28 29 30 32 31 30 30 31 33 33 33 36 37 37 38 39 39 41 44 46 48 49 50 52 53 56 58
25 20 24 30 40 41 52 48 47 46 46 46 45 40 54 46 34 37 38 37 38 39 35 37 41 44 43 42 44 46 47 47 48 50 52 54 55 56 55 56 57 57 59
18 22 22 21 23 27 28 30 55 50 54 58 67 62 48 47 49 48 50 40 45 46 48 47 46 46 49 52 52 53 53 53 54 56 58 59 60 61 62 61 60 62 63
23 24 25 27 28 27 29 32 30 35 47 62 58 56 58 57 56 59 48 50 52 55 58 56 49 52 54 52 52 54 56 56 57 59 61 61 61 62 63 65 65 67 68
23 25 25 26 30 30 31 32 34 35 36 40 42 47 50 50 51 47 41 45 44 46 45 42 42 44 44 46 47 49 52 54 56 57 59 61 63 65 66 68 70 71 72
21 22 23 22 21 26 27 30 32 32 32 30 29 29 27 26 24 26 30 31 33 35 36 38 41 43 45 48 50 52 53 55 56 57 59 60 62 63 65 67 69 71 72
27 26 26 26 27 23 23 23 23 23 22 20 20 21 22 25 28 28 29 31 34 38 42 45 48 50 52 53 53 53 53 54 56 58 60 61 62 64 65 66 66 67 67
23 30 28 28 28 29 26 23 19 20 22 23 24 26 28 29 32 33 35 36 38 40 43 46 48 50 50 50 51 53 54 56 57 58 60 61 62 62 61 61 61 61 62

GFSMW_500_spd_081.txt.gz
Wind_Speed
29 30 39 39 35 35 32 28 27 26 27 26 27 26 21 19 20 22 25 27 30 31 31 28 27 31 31 33 31 39 39 39 32 26 25 25 28 31 34 34 30 31 32
30 30 39 27 32 33 31 26 26 27 26 27 24 22 20 18 19 20 22 25 27 29 31 31 32 35 31 31 29 35 40 43 37 29 28 24 24 24 24 27 25 29 31
29 30 31 26 31 30 27 26 26 29 25 23 21 19 18 15 18 17 21 24 25 24 26 28 24 30 27 26 26 29 37 41 40 35 30 23 23 24 22 25 25 29 32
28 28 28 25 27 27 27 27 29 28 24 20 21 19 15 15 14 16 15 17 21 21 25 28 29 25 26 32 29 30 35 37 36 27 21 24 25 25 26 26 28 29 29
28 27 28 30 25 30 29 29 30 26 23 20 21 20 14 14 13 14 14 14 20 18 20 27 33 32 33 29 31 32 36 39 31 19 20 20 22 21 22 24 25 28 31
31 29 31 33 28 32 31 32 31 26 21 20 22 18 14 12 11 11 11 9 14 13 13 18 28 32 30 32 29 27 33 27 24 25 21 20 18 21 25 27 28 30 32
26 25 30 32 28 33 32 34 30 23 20 23 22 18 15 11 10 7 6 5 7 11 10 15 25 27 33 28 29 34 32 28 27 24 23 21 23 22 23 24 26 29 31
34 31 33 32 32 32 30 31 29 23 21 24 22 20 15 13 12 11 9 4 5 5 6 9 14 15 25 25 26 31 29 28 27 27 28 27 27 27 25 29 31 32 33
28 29 34 32 32 33 30 31 28 23 23 21 21 21 17 15 14 14 11 8 5 6 4 10 14 17 21 23 19 26 28 28 25 26 26 23 22 26 23 28 30 29 34
32 30 32 34 35 36 30 33 27 25 25 19 19 22 21 18 17 16 14 12 10 6 5 3 13 20 22 20 21 22 25 25 26 28 26 25 24 24 27 32 30 33 34
34 33 34 36 38 32 33 34 30 28 23 20 17 19 22 21 20 18 17 15 13 8 7 6 7 14 17 18 18 11 19 23 24 24 25 26 28 29 27 28 31 26 23
34 35 36 34 35 37 38 37 35 31 24 24 19 17 19 22 22 21 19 17 15 12 8 10 11 10 13 16 16 19 13 14 16 17 18 20 20 19 19 20 20 21 24
36 37 37 38 38 41 44 42 39 33 25 25 22 21 20 21 23 23 21 20 18 16 13 10 12 15 15 15 15 16 16 16 16 16 15 19 18 19 21 21 22 25 28
37 39 39 41 40 44 43 43 42 33 30 26 24 24 24 23 24 24 24 23 21 20 18 16 14 14 12 13 14 15 16 17 18 18 20 22 23 23 25 24 26 28 28
39 39 40 40 43 42 44 43 43 39 37 33 30 31 28 25 27 26 26 26 25 24 22 21 19 17 16 17 17 18 19 20 22 24 24 25 26 27 28 29 30 33 34
39 38 40 39 39 41 36 47 45 43 41 38 39 35 33 30 29 29 27 27 27 25 24 23 22 21 20 22 22 22 24 27 28 28 28 29 31 31 31 33 34 36 39
39 39 39 42 44 39 44 49 47 47 42 41 42 40 36 34 32 31 31 30 29 28 28 24 23 23 22 23 23 25 27 28 29 30 31 33 34 35 36 37 38 39 41
23 40 37 41 43 40 43 48 50 50 46 44 43 42 40 38 35 34 32 39 37 35 33 30 26 25 24 25 25 26 27 28 30 32 33 35 37 38 39 41 43 44 46
20 20 42 43 44 43 40 36 48 53 51 46 47 45 41 37 38 39 29 42 41 35 33 32 31 30 30 30 31 30 32 34 35 36 38 39 40 42 44 47 49 50 52
10 15 17 40 42 42 41 40 41 38 53 49 50 52 52 42 40 39 38 40 35 31 34 37 36 35 36 37 39 39 40 43 45 46 45 45 49 50 52 53 54 56 58
25 19 16 20 27 34 50 41 49 46 44 45 47 50 46 44 44 44 40 50 47 39 39 41 43 45 45 45 44 46 48 48 48 50 52 55 56 56 57 58 59 60 62
21 20 22 17 24 26 24 34 35 40 48 55 55 52 52 48 48 56 58 53 68 42 50 50 55 52 48 50 51 56 55 53 54 56 56 57 57 58 60 60 60 61 63
26 20 21 24 24 24 25 25 25 32 38 36 36 40 53 64 67 67 67 63 64 59 60 62 66 63 53 55 56 52 51 51 51 51 52 53 55 58 60 62 64 65 68
15 16 18 20 21 25 28 29 29 30 31 32 34 35 36 35 37 38 44 39 42 40 41 46 50 48 45 38 38 41 42 45 49 52 55 58 61 63 65 67 67 67 68
21 21 20 22 23 23 23 25 29 31 32 34 34 36 37 35 33 29 23 23 24 27 28 30 31 33 35 38 42 46 50 52 54 57 58 60 61 62 63 63 65 66 68
18 28 25 28 27 27 24 24 26 27 28 28 28 28 29 27 25 24 25 27 30 32 33 35 37 39 42 44 46 46 48 50 53 55 56 58 59 61 62 64 65 67 68

GFSMW_500_spd_087.txt.gz
Wind_Speed
37 35 32 33 39 38 38 37 29 24 28 32 28 27 25 23 24 26 24 20 18 17 20 20 22 24 24 25 24 22 25 28 38 43 36 34 33 22 24 29 24 26 29
33 32 34 36 39 36 40 30 26 22 28 29 27 27 25 22 25 24 21 18 20 22 22 22 23 26 26 27 24 24 27 30 37 41 33 30 31 22 24 29 28 27 28
26 33 36 35 34 35 31 31 19 24 26 27 30 25 22 23 23 22 19 18 22 22 19 21 25 26 27 27 28 27 28 34 31 38 38 35 28 26 27 29 29 29 28
30 28 34 32 32 29 30 30 22 30 28 27 28 22 21 22 21 19 18 21 22 18 19 18 21 24 26 27 28 28 24 33 34 33 35 40 32 30 29 29 27 27 29
30 31 32 31 28 34 35 26 28 33 31 29 26 24 23 20 19 17 18 21 20 16 18 21 23 26 24 26 28 30 29 36 36 35 32 37 39 29 25 28 26 23 25
31 37 36 37 41 41 35 28 34 32 29 30 27 24 22 17 17 16 18 20 17 13 17 20 22 22 28 30 27 32 36 35 30 35 32 33 35 33 34 35 27 26 25
36 31 33 36 35 33 33 32 32 31 31 31 27 25 19 17 17 15 20 18 13 13 16 17 17 16 24 24 25 29 36 30 30 33 35 36 33 30 32 30 24 24 24
20 26 32 34 36 32 30 34 34 33 32 31 28 25 20 16 16 17 21 18 16 16 16 16 16 16 17 20 27 25 34 31 29 27 29 30 29 29 27 25 24 24 24
21 27 27 30 34 38 34 35 33 31 34 33 29 27 22 15 17 21 21 19 19 19 17 15 14 17 12 16 29 26 29 32 31 26 27 31 33 30 26 24 24 23 22
24 25 26 29 33 35 33 32 34 30 31 33 30 28 20 13 19 22 21 20 20 19 19 16 13 16 10 17 28 31 31 34 31 26 28 29 31 28 25 23 24 25 23
19 23 31 31 32 26 25 31 29 30 30 29 29 24 18 14 19 24 21 21 21 20 19 16 14 14 13 13 24 28 29 28 31 25 27 27 28 28 27 27 26 24 25
15 21 28 29 33 32 30 27 28 27 31 31 30 26 21 16 18 23 24 22 21 20 19 16 14 11 10 12 18 20 21 22 26 23 21 20 23 23 27 28 27 26 29
15 20 28 33 33 31 31 31 33 30 33 31 31 29 26 22 18 18 23 23 20 19 18 17 13 11 8 9 11 15 19 21 20 23 25 24 29 29 27 27 28 30 31
15 19 28 35 34 34 34 32 34 34 31 28 31 31 26 23 21 21 20 20 21 19 18 17 15 13 12 12 12 16 22 20 19 20 26 27 29 30 29 30 29 27 27
17 18 22 28 32 33 36 38 36 35 33 30 33 33 30 27 25 25 22 20 19 19 17 17 17 17 16 15 17 18 23 27 27 25 26 24 23 23 26 26 27 29 29
15 15 22 28 31 33 37 39 37 37 37 35 35 35 33 32 31 28 28 26 22 20 20 19 19 20 21 21 20 20 23 25 27 26 27 28 27 27 28 27 28 30 31
12 15 16 21 31 33 38 41 41 41 41 39 39 37 36 36 36 34 31 31 28 25 23 22 23 24 26 27 28 28 28 28 28 29 29 29 29 30 30 32 33 35 36
13 14 16 20 26 36 40 43 46 45 44 42 42 45 44 45 46 40 37 35 33 31 28 27 27 28 29 32 34 34 34 35 35 35 35 35 35 35 35 36 37 37 37
18 15 14 17 22 27 34 46 48 46 44 47 42 46 40 46 49 46 43 38 37 37 36 32 33 30 31 37 36 38 38 39 39 39 39 39 39 39 39 38 38 37 38
20 19 19 18 15 29 38 37 48 52 49 45 39 48 44 48 46 48 47 44 42 41 41 39 35 38 39 33 38 42 42 44 43 43 43 43 43 42 42 41 42 44 45
17 19 16 17 17 19 22 39 39 46 49 50 46 47 43 45 50 54 49 49 47 49 46 43 39 36 33 41 47 50 45 47 45 48 48 48 49 48 48 49 50 49 51
20 18 18 18 19 18 19 23 43 49 46 49 50 50 50 51 51 53 47 51 53 57 54 53 47 38 39 37 53 55 48 51 54 55 56 54 55 55 55 55 56 58 62
22 21 18 15 18 20 20 24 20 32 52 53 60 61 60 54 49 47 66 59 65 69 74 67 61 62 46 50 51 50 57 63 60 61 62 62 60 62 64 66 65 62 59
22 22 20 20 20 19 22 19 19 17 20 21 31 41 46 51 52 54 63 59 63 57 53 46 56 61 56 58 55 59 62 70 69 70 70 61 58 55 53 51 51 47 44
22 23 19 17 16 18 18 14 13 15 15 16 18 21 22 21 22 23 28 31 35 36 35 40 45 45 43 46 49 50 49 54 49 48 49 47 45 43 38 41 46 49 53
19 20 21 20 19 19 20 18 17 20 20 18 18 18 18 17 20 23 26 28 28 28 29 32 34 35 36 39 40 37 37 37 36 36 36 36 38 42 47 51 53 56 59

GFSMW_500_spd_090.txt.gz
Wind_Speed
36 39 45 42 38 40 39 44 43 37 35 33 37 32 30 34 36 32 31 28 25 25 23 20 21 23 25 26 24 25 22 25 25 28 33 46 38 37 36 31 27 27 30
37 42 39 39 39 36 38 40 33 36 30 35 38 32 34 34 34 29 27 26 27 25 21 21 21 25 27 28 27 25 26 26 25 30 37 42 39 40 36 32 30 29 31
40 35 35 33 33 39 40 42 35 33 30 36 39 35 37 34 29 24 26 27 27 24 22 21 22 26 28 27 29 27 28 27 27 30 39 42 36 38 35 30 32 30 32
36 38 39 40 36 35 39 33 34 32 32 35 35 34 34 29 27 26 26 28 25 23 21 20 21 20 21 27 30 30 29 30 27 25 44 39 32 31 35 37 35 34 33
36 37 37 33 38 38 31 31 33 32 33 35 35 35 32 29 28 24 25 27 24 21 19 21 20 19 21 23 29 30 29 31 26 27 33 31 38 36 36 33 32 33 34
31 32 40 35 38 38 36 35 31 24 34 36 38 36 32 31 27 24 25 26 22 18 19 19 18 19 21 25 30 33 30 30 27 30 30 34 31 34 36 38 35 34 33
33 36 39 31 34 37 34 33 31 30 36 35 36 34 33 31 26 23 26 24 20 17 16 16 17 16 18 23 28 30 29 30 31 29 30 31 34 31 33 35 32 31 34
23 30 28 25 32 31 30 34 35 36 34 34 34 34 34 30 26 24 25 22 18 18 18 16 14 18 20 25 25 26 29 32 34 31 32 29 34 32 31 33 33 33 36
16 28 32 30 27 31 36 31 30 32 34 35 37 35 33 30 25 24 25 20 18 20 19 17 18 19 20 23 21 22 27 29 28 36 30 31 34 35 32 31 30 33 32
16 14 25 37 35 36 37 36 33 35 37 36 36 35 34 32 26 24 23 20 21 20 15 17 20 20 20 22 19 24 26 26 30 32 33 30 30 31 30 27 30 27 25
17 20 19 25 28 31 30 32 36 43 44 39 37 37 37 30 26 24 22 21 23 19 16 18 18 18 17 19 17 23 29 29 28 35 32 28 29 31 30 31 29 24 25
19 21 24 28 32 30 31 32 39 38 38 38 38 39 36 29 30 22 20 22 24 19 18 18 17 17 16 12 11 23 27 28 32 30 30 30 29 31 29 28 28 29 29
27 21 25 28 32 31 35 25 14 16 6 42 39 34 31 32 30 23 18 21 22 22 20 20 17 16 14 11 8 13 28 27 27 29 35 26 24 25 27 29 28 31 32
18 19 19 24 29 30 34 32 30 26 17 20 27 34 32 32 32 25 21 19 19 22 20 19 17 15 14 11 8 10 20 22 24 25 28 28 29 28 31 33 33 34 32
16 15 14 19 26 30 29 28 27 24 23 25 30 34 33 33 32 30 25 22 19 20 20 18 16 15 15 13 9 11 14 19 24 21 23 25 29 31 28 30 32 33 34
13 18 13 15 20 27 33 34 31 28 27 29 32 28 32 35 35 30 27 26 24 22 21 19 17 17 16 15 14 13 15 19 25 25 24 24 29 34 33 30 32 33 32
7 11 13 13 20 24 33 37 37 34 34 34 34 35 32 36 38 34 31 30 29 27 24 24 21 20 20 20 20 20 20 20 24 27 28 26 29 31 31 33 33 34 34
14 11 9 14 14 23 30 35 36 36 36 37 37 38 38 36 37 36 34 34 34 32 29 28 26 25 24 25 25 24 25 27 29 30 31 31 32 33 34 36 36 38 38
12 12 13 14 14 20 28 33 36 38 38 40 40 40 40 40 38 37 38 38 38 38 39 34 33 31 30 29 29 28 30 33 33 34 36 38 38 38 39 40 41 41 46
14 15 16 17 17 17 16 27 32 38 41 42 44 44 46 47 35 44 43 45 48 43 45 42 39 38 38 37 36 37 35 37 40 38 40 41 43 44 45 47 47 48 49
18 15 16 19 17 19 16 20 30 31 36 42 49 49 51 51 49 45 50 42 46 43 46 47 44 42 43 43 43 41 42 41 39 40 45 45 47 50 51 52 54 54 54
15 17 16 21 21 18 20 17 19 21 37 44 45 53 58 53 45 53 44 43 44 51 55 48 50 48 54 45 48 44 45 43 47 46 48 50 48 52 54 56 58 60 61
17 17 20 22 23 19 19 20 18 23 21 31 41 45 47 53 56 54 52 50 52 63 47 56 56 53 52 56 58 54 50 52 50 54 55 60 57 60 62 65 65 67 70
20 20 21 22 25 26 22 19 22 22 22 19 23 31 36 45 54 55 60 57 58 60 52 60 61 59 64 73 76 65 65 60 63 56 61 65 61 62 67 75 74 71 69
23 23 23 24 25 24 23 20 20 23 22 20 18 20 19 24 30 35 40 45 51 46 46 55 60 57 55 59 55 62 65 61 63 64 64 62 58 57 60 60 55 54 55
25 24 25 24 23 24 23 21 18 18 15 15 16 16 18 19 23 26 28 32 34 34 34 35 39 42 45 47 47 48 46 45 45 46 45 44 44 44 44 43 43 44 46

GFSMW_500_spd_093.txt.gz
Wind_Speed
51 49 47 49 51 57 62 66 63 54 47 46 42 46 46 32 32 31 33 35 31 31 28 27 30 28 30 30 31 30 28 29 31 28 28 28 30 36 35 36 33 29 28
52 45 47 46 48 49 52 53 46 50 45 44 39 43 39 37 41 36 37 35 33 31 26 29 28 28 27 28 29 29 28 29 31 31 29 29 28 35 37 36 34 33 30
46 46 45 37 45 45 50 49 43 43 46 41 40 44 41 38 39 35 36 29 32 29 27 29 27 28 27 27 27 28 28 31 34 32 31 30 31 29 36 37 38 37 33
44 42 43 37 44 47 41 44 42 40 41 37 43 46 37 34 40 30 28 32 28 29 29 27 27 26 25 23 24 28 28 33 34 32 33 31 35 39 40 40 40 40 35
42 37 37 34 43 38 38 41 44 36 34 37 45 40 41 39 39 33 32 29 28 30 28 26 25 23 23 22 22 22 29 34 35 34 34 31 34 36 41 42 38 38 32
29 28 31 33 41 38 40 37 42 41 40 39 39 40 40 35 37 30 28 26 30 31 26 25 24 22 23 22 21 23 29 34 34 35 35 30 29 32 34 31 36 35 36
25 26 29 31 37 37 37 38 34 34 36 38 41 40 36 38 34 30 28 29 31 29 25 23 22 21 21 19 22 23 25 31 35 35 35 24 25 31 34 37 36 33 35
25 33 32 32 31 37 31 38 35 32 36 40 38 39 38 37 33 30 30 30 31 26 24 22 21 20 17 22 24 25 27 28 32 33 34 35 29 30 35 33 32 29 35
27 21 23 31 34 37 33 35 31 32 37 38 39 36 38 35 33 32 32 32 29 25 25 22 23 23 22 21 23 26 26 28 32 32 35 31 31 27 29 34 30 28 32
15 19 20 29 27 32 31 35 36 40 40 48 40 38 38 39 37 35 34 30 29 27 26 21 23 26 24 22 21 25 22 25 32 32 35 32 30 29 31 32 31 33 32
16 13 14 22 32 26 27 30 33 35 28 32 45 40 42 40 35 37 33 31 29 29 27 22 24 24 22 21 20 26 20 29 32 32 30 30 32 30 30 33 35 32 28
16 14 13 16 20 30 31 31 32 34 35 35 38 40 40 37 37 36 32 31 30 30 26 26 25 23 22 18 18 21 18 24 30 29 28 32 31 32 32 30 30 27 27
13 18 17 17 20 24 28 27 26 27 29 31 39 40 40 38 36 35 34 30 29 29 28 28 26 22 21 15 15 16 14 25 30 29 33 37 35 31 30 31 32 28 26
12 11 19 18 21 24 29 33 28 24 17 23 36 44 43 41 39 37 33 30 30 31 26 28 25 20 19 14 10 14 10 24 27 30 30 33 33 30 28 28 29 29 29
10 12 10 15 19 23 26 30 33 29 25 20 25 37 47 46 41 39 37 33 34 30 24 27 23 21 17 15 11 11 13 11 25 26 28 30 36 34 28 30 30 29 32
9 9 13 13 14 18 21 22 25 24 25 14 14 23 33 41 42 41 40 38 35 29 23 24 21 21 19 17 14 12 12 11 12 16 23 24 28 32 32 35 34 27 26
13 8 10 13 14 16 17 22 26 25 24 22 20 20 22 30 41 42 38 38 36 31 26 24 23 22 22 21 19 16 15 16 15 17 22 20 23 24 29 34 35 34 35
14 14 12 10 13 13 16 19 21 24 28 29 24 21 22 29 28 36 37 35 37 32 30 29 28 27 25 25 25 23 20 20 21 22 23 25 27 27 30 33 35 36 36
12 11 10 12 12 14 14 16 18 24 28 29 30 26 28 27 30 32 35 38 37 37 34 33 32 32 31 31 30 28 25 25 25 26 27 28 30 32 34 35 37 38 39
12 13 13 12 13 13 15 15 16 22 27 30 32 35 32 29 38 35 39 39 39 36 37 36 36 37 38 38 37 35 32 31 32 31 30 31 35 37 38 40 41 42 43
8 11 13 12 13 15 17 19 17 18 25 33 37 37 38 41 35 41 42 36 42 47 42 41 39 44 46 44 43 42 41 40 39 40 41 38 39 42 44 45 45 46 48
12 12 14 17 18 16 18 20 23 20 25 29 35 40 39 40 44 46 46 46 45 39 43 46 45 41 44 46 46 47 47 47 49 48 47 46 45 46 46 46 51 54 54
15 15 15 17 20 21 21 22 23 25 26 27 28 37 39 41 47 48 50 54 54 59 50 51 46 44 53 48 46 50 51 55 58 55 54 53 53 52 54 56 55 60 59
19 20 20 18 19 21 25 25 26 24 28 29 28 30 31 38 48 51 44 45 49 56 56 51 55 46 49 55 56 62 59 60 61 63 66 56 60 62 63 61 64 67 69
24 24 24 24 24 24 26 28 28 30 31 28 30 29 29 30 33 36 40 41 41 45 53 53 58 59 60 57 63 66 66 64 66 61 65 68 71 73 71 69 67 75 74
25 27 28 27 27 27 28 30 30 28 28 30 29 28 26 26 27 29 30 28 28 31 36 40 43 47 51 53 55 59 63 65 66 65 65 65 68 67 69 72 71 69 64

GFSMW_500_spd_096.txt.gz
Wind_Speed
51 52 53 51 53 62 65 64 64 63 64 69 68 60 48 45 43 41 36 40 40 36 36 31 28 27 27 28 31 31 31 30 29 30 26 27 27 28 29 29 31 36 34
53 57 55 52 53 51 58 55 56 59 61 62 66 66 51 49 42 45 44 41 40 37 36 29 27 27 28 30 32 30 30 30 32 29 27 31 30 32 33 38 31 37 32
56 56 50 47 48 47 52 54 55 58 54 57 52 57 51 47 47 49 48 44 44 43 36 29 27 29 31 30 31 28 29 29 32 30 30 31 32 30 32 36 35 37 37
53 51 49 45 43 45 48 55 57 55 47 49 48 47 40 46 40 47 44 50 47 39 28 27 27 29 29 30 29 29 30 30 30 30 32 32 31 33 33 36 33 36 37
47 47 44 42 36 40 39 47 48 44 45 46 46 42 45 44 42 45 43 36 40 39 26 24 28 27 28 28 28 28 27 28 30 29 33 35 34 33 32 37 32 33 36
41 37 39 35 32 35 39 43 42 41 45 42 39 41 43 42 41 45 41 37 31 29 24 29 27 26 26 27 28 27 26 25 26 29 33 36 37 33 34 37 38 40 41
30 27 29 24 24 28 34 37 38 35 31 41 43 42 38 39 42 41 30 35 28 28 29 31 25 25 26 27 27 25 25 24 24 30 33 37 38 35 34 36 35 43 38
32 36 28 27 26 27 33 35 37 38 29 39 40 35 33 40 46 41 37 37 34 30 33 29 25 25 25 24 22 23 25 26 29 28 33 40 39 33 30 28 34 33 32
28 32 28 24 23 27 26 30 34 40 34 35 38 39 42 44 43 42 36 36 34 31 31 29 25 25 25 24 24 23 23 26 30 32 34 38 38 31 34 28 26 24 31
22 21 23 21 20 20 22 24 27 39 35 30 32 41 44 44 43 44 40 35 32 32 31 27 27 25 24 27 27 26 28 29 31 30 33 32 35 34 34 29 24 26 29
17 21 20 17 19 21 24 27 27 33 35 33 34 40 43 47 48 40 39 34 31 31 31 28 27 24 25 25 26 28 28 30 31 31 33 32 32 35 36 31 28 29 29
16 15 19 16 14 23 25 32 29 30 36 36 35 38 40 50 38 42 37 32 34 34 32 27 25 27 25 25 27 28 27 31 25 30 28 32 31 34 43 33 28 29 31
14 15 16 17 16 16 22 26 30 29 30 31 32 42 31 45 43 42 36 35 34 34 30 26 28 29 28 27 28 25 26 31 21 25 39 27 28 35 31 28 31 30 28
15 15 13 17 18 15 18 15 23 25 21 24 30 31 36 39 44 42 39 40 38 33 30 29 29 29 28 28 28 23 23 27 16 22 30 30 28 32 28 31 26 30 28
14 12 13 13 15 13 13 15 20 26 23 25 19 26 30 33 40 45 45 43 40 35 34 31 26 28 28 28 28 21 22 24 15 20 28 32 29 28 31 32 29 30 28
14 10 9 11 13 10 9 15 16 22 25 27 23 22 28 41 40 55 48 44 42 39 36 30 26 27 27 27 27 23 20 20 14 12 24 24 27 29 29 32 28 27 30
12 8 6 6 10 12 9 12 13 17 23 22 21 9 25 44 50 42 52 46 44 40 36 30 28 25 25 25 25 23 21 16 16 17 13 16 24 29 30 31 32 31 32
16 9 7 10 9 10 10 11 13 16 23 23 22 20 16 18 29 34 46 43 45 40 38 35 33 29 25 24 24 24 22 22 19 18 19 21 20 22 28 27 27 30 27
10 8 9 11 10 9 11 9 12 12 16 20 22 19 16 17 29 30 44 48 44 43 40 38 36 33 29 28 28 28 27 26 25 25 24 25 24 24 26 28 28 31 35
9 10 11 13 11 9 9 9 11 11 15 16 18 19 22 22 23 21 29 34 38 35 39 37 40 38 35 34 34 32 31 31 30 30 29 29 29 29 30 31 33 35 36
6 7 8 9 11 11 10 11 11 13 14 15 21 21 27 28 31 27 30 29 31 35 39 40 39 38 39 39 39 38 38 39 38 37 36 36 35 34 34 35 36 38 40
4 9 10 11 12 13 15 16 15 14 15 17 18 23 27 31 35 38 37 34 33 48 37 39 39 39 42 42 45 42 42 43 45 44 42 43 43 43 43 44 45 45 45
11 11 11 13 15 16 17 19 20 18 18 18 20 21 24 26 33 37 39 40 36 40 42 43 39 42 42 41 43 50 48 44 45 48 44 47 50 50 50 52 53 53 51
12 14 14 17 19 17 17 18 19 22 23 23 23 23 25 26 28 34 39 41 44 49 49 45 46 49 48 50 55 48 51 53 47 52 51 49 50 54 58 56 57 58 59
15 16 17 18 19 23 26 26 24 22 24 26 27 29 30 28 30 32 34 36 40 45 47 49 48 49 53 57 60 60 53 52 52 54 56 60 62 62 63 64 66 66 66
14 15 18 20 20 22 25 29 30 30 30 30 30 30 31 32 34 35 35 38 37 35 35 38 44 50 52 53 56 58 59 56 57 59 57 61 62 67 69 69 68 70 73

GFSMW_500_spd_099.txt.gz
Wind_Speed
41 42 43 44 46 50 54 56 57 62 67 70 74 74 68 68 59 52 51 47 49 42 41 42 42 43 36 30 26 24 27 30 31 33 28 29 26 25 23 35 34 32 29
40 42 45 47 49 53 57 55 56 57 63 68 67 68 67 68 66 59 49 48 47 38 39 41 42 41 37 29 25 25 29 30 32 32 28 31 27 24 25 25 33 35 38
40 41 44 48 51 57 57 55 52 50 49 49 54 59 63 66 64 62 53 48 46 42 45 43 42 40 36 27 26 27 31 31 31 28 29 31 27 25 29 29 31 32 40
40 42 46 52 56 56 52 49 48 48 49 47 47 52 56 55 52 46 41 39 45 48 46 48 45 42 34 26 28 31 32 30 29 28 28 30 28 26 31 29 29 31 33
41 43 49 56 54 48 46 44 43 44 44 46 45 51 47 41 43 38 34 38 46 47 49 56 50 39 29 27 31 32 31 29 29 29 29 31 30 30 32 33 34 35 38
41 45 48 44 37 35 37 32 37 41 39 39 37 43 39 39 45 40 39 43 42 45 48 37 50 27 24 28 31 29 28 27 29 28 26 30 31 31 34 33 37 36 38
40 46 39 33 34 32 27 23 28 32 31 31 34 36 35 37 37 36 36 36 41 37 31 32 29 22 24 26 28 28 26 28 27 26 27 29 29 33 34 38 36 38 35
40 42 35 29 33 27 27 25 24 27 31 32 36 38 36 39 34 34 36 41 43 38 33 30 23 23 25 24 28 27 27 28 24 26 28 28 30 35 37 38 39 39 39
39 37 35 29 29 21 24 22 25 26 29 33 30 28 38 35 33 38 41 41 41 42 40 32 27 27 24 25 29 27 25 24 23 25 27 29 32 35 36 38 36 37 35
36 35 32 26 23 21 20 21 24 26 31 34 36 32 37 36 36 39 43 42 45 41 36 33 24 26 24 26 29 28 27 26 25 26 28 29 32 35 39 40 36 36 31
34 34 27 22 21 20 21 16 18 22 28 35 39 34 36 34 37 35 35 39 46 40 45 28 27 27 26 29 30 28 29 28 27 28 30 32 36 34 36 39 38 39 35
33 30 29 19 17 19 15 20 22 21 26 31 39 31 32 34 35 34 36 42 44 43 30 27 28 30 27 30 29 29 28 27 28 29 33 38 35 37 38 40 41 40 31
32 25 25 20 16 18 14 18 25 25 28 26 37 30 30 28 38 38 43 44 44 41 33 31 31 29 29 32 31 29 27 27 28 31 35 35 35 38 38 38 40 40 38
31 28 22 19 17 17 18 12 22 24 27 25 33 36 33 33 34 39 43 42 41 45 35 33 33 30 31 32 30 29 28 29 30 29 35 26 26 32 34 35 37 41 39
31 20 18 16 16 16 16 14 14 15 27 17 23 26 27 37 34 38 43 35 38 42 37 35 35 31 30 30 28 28 28 27 28 30 25 25 25 31 31 34 36 37 36
19 16 15 14 15 15 13 14 15 14 20 21 17 20 16 23 25 35 41 40 43 46 40 38 37 35 30 26 25 28 28 27 26 27 20 19 28 30 29 30 33 32 32
17 17 13 11 10 11 12 13 14 13 18 21 15 19 16 20 24 32 40 43 46 48 42 40 41 37 29 24 24 26 26 26 25 25 22 20 22 22 27 31 33 35 33
14 17 14 9 9 6 8 13 11 10 14 18 20 20 20 17 24 32 39 34 37 48 42 43 42 38 34 29 23 23 24 25 25 25 24 18 20 18 22 27 26 26 29
12 14 13 11 12 10 10 9 9 7 8 14 19 20 21 20 11 22 35 33 38 48 51 45 45 42 36 33 28 26 26 25 26 25 25 24 23 24 24 15 18 27 28
10 6 6 11 12 11 11 11 8 9 7 9 13 19 22 21 18 10 25 36 45 48 54 49 47 45 41 37 35 32 29 29 28 29 27 27 28 28 26 25 27 31 31
7 6 5 4 6 9 10 10 11 9 10 10 9 15 19 19 23 26 21 19 40 39 48 50 48 45 43 40 41 41 39 37 35 35 33 32 32 32 33 33 33 34 36
7 6 5 5 6 6 7 9 10 10 12 11 11 11 14 21 27 24 29 25 27 24 33 35 47 41 45 45 43 48 48 45 42 41 40 40 38 40 40 40 41 40 40
8 8 8 7 7 8 9 10 10 12 14 14 15 14 17 17 20 25 30 38 38 35 35 36 41 37 35 44 43 44 44 45 44 46 48 46 43 44 45 45 47 47 47
11 10 10 11 12 13 15 15 13 13 14 15 17 18 19 20 22 24 26 27 35 38 40 42 41 41 37 41 40 47 48 48 47 50 43 48 52 48 47 49 51 51 52
8 9 10 10 13 16 17 19 20 22 22 21 21 21 22 23 24 26 27 31 32 31 35 39 43 47 48 50 51 50 53 49 49 49 54 54 55 54 55 54 55 57 60
6 8 10 12 11 12 14 15 19 23 25 26 29 29 28 28 29 29 30 32 34 34 36 37 39 42 45 50 55 55 56 58 63 63 62 64 64 62 56 59 60 62 62

GFSMW_500_spd_102.txt.gz
Wind_Speed
40 40 40 40 40 41 42 44 46 49 50 52 55 59 62 64 68 67 67 62 59 55 52 49 48 47 48 47 45 36 35 31 30 29 29 30 31 32 29 24 24 45 32
40 40 40 40 40 41 42 45 49 50 53 55 58 61 62 66 69 69 68 63 59 53 53 50 47 45 48 44 45 39 33 32 31 30 30 31 30 30 28 25 27 44 35
40 41 41 40 41 42 45 46 52 57 58 61 61 61 59 60 62 68 63 58 55 54 51 48 46 45 48 45 45 41 34 31 32 30 31 30 26 29 28 27 28 44 41
41 41 41 42 41 44 49 51 55 57 60 60 55 48 47 45 46 55 51 51 54 55 55 54 47 45 49 47 47 42 35 33 32 31 30 30 25 28 28 27 28 23 33
42 42 43 43 44 46 49 52 51 54 49 48 49 47 45 43 47 47 48 49 48 51 49 50 59 42 52 47 45 46 38 34 34 30 30 31 27 28 28 26 31 28 26
42 42 42 42 45 48 49 51 46 40 44 46 47 46 43 41 43 40 39 42 45 43 39 43 44 42 48 53 48 49 40 37 32 31 30 30 27 28 28 29 32 32 32
41 40 39 39 43 47 51 42 38 42 38 34 32 36 36 37 36 36 38 40 39 43 41 38 39 39 42 42 51 49 38 34 30 30 30 29 28 28 29 33 34 35 36
36 37 37 36 41 48 41 36 35 34 36 29 30 29 32 33 35 37 37 36 40 43 41 42 36 35 42 48 43 40 33 30 30 29 28 28 26 25 26 33 35 35 38
35 35 35 35 40 43 35 34 29 30 29 26 27 27 26 29 35 35 35 34 36 40 42 40 40 30 19 28 32 27 29 29 27 27 26 27 28 27 27 30 34 37 38
33 34 36 34 40 38 31 33 26 26 28 26 24 26 29 35 37 38 38 35 34 37 41 36 44 27 24 33 27 25 29 27 26 26 25 26 26 26 26 28 32 37 38
33 34 37 36 40 35 32 26 27 22 23 25 28 30 31 35 31 35 37 33 33 33 40 42 39 35 37 38 29 29 29 27 28 28 28 28 28 29 29 30 32 35 40
33 35 39 40 39 34 29 22 22 23 23 25 28 32 30 34 31 34 33 35 35 36 41 42 39 44 41 30 29 26 26 27 28 30 32 31 32 33 32 35 37 36 37
35 36 37 39 36 35 30 24 23 25 29 24 24 29 32 34 31 34 35 35 37 37 40 40 40 45 30 31 28 26 27 28 29 31 32 34 36 34 34 37 38 35 39
42 40 38 40 35 35 29 28 26 18 24 26 29 21 27 33 25 31 29 40 35 37 38 36 33 36 33 31 30 27 29 30 32 31 33 35 35 34 38 32 33 39 42
46 41 37 37 32 32 29 26 26 18 24 31 21 20 32 34 25 28 23 37 36 36 36 36 34 34 33 34 31 26 29 32 33 34 34 34 34 30 30 24 29 33 36
48 42 36 34 31 28 26 22 21 21 18 18 20 18 24 35 35 33 34 36 41 41 41 40 40 40 38 35 33 28 28 33 33 34 31 31 31 25 26 27 28 28 36
38 33 26 29 29 25 24 21 18 17 17 19 18 23 18 27 27 20 21 23 33 33 37 36 39 40 42 40 35 28 28 32 34 32 29 29 25 25 17 28 32 32 32
20 24 25 26 23 20 15 12 14 14 15 17 20 23 21 16 18 21 27 33 26 31 37 40 42 45 44 42 36 32 30 31 31 31 29 27 25 21 20 17 32 32 34
13 18 18 23 20 12 12 11 11 11 12 15 16 18 21 19 18 19 22 29 31 35 36 41 45 48 45 43 38 34 32 29 29 31 29 27 26 23 22 21 19 28 29
15 18 18 16 10 9 10 11 12 11 10 10 15 16 22 22 19 18 11 22 27 34 38 37 50 50 44 46 42 38 35 33 30 30 31 30 28 27 26 24 24 23 20
15 13 9 7 6 5 6 6 7 8 10 10 9 13 14 19 21 22 22 13 28 36 41 38 43 52 49 50 47 43 41 38 36 34 34 34 32 32 32 31 29 28 28
11 8 5 4 3 4 4 4 5 6 6 8 11 12 11 13 19 21 20 22 23 30 40 39 36 42 45 52 52 47 46 44 42 41 40 40 38 37 38 38 35 34 33
9 7 4 4 5 6 6 6 6 7 9 10 11 11 14 16 16 17 23 23 28 25 24 31 33 35 40 45 56 51 50 45 46 44 48 46 45 47 44 45 43 42 43
3 4 7 9 10 11 12 13 13 14 14 15 16 16 16 16 18 21 22 22 24 33 37 35 37 38 39 37 48 41 39 41 52 47 42 47 50 52 52 51 50 50 47
4 5 6 9 12 13 14 16 18 20 20 22 23 23 23 23 23 23 23 24 28 31 31 33 33 34 38 41 43 44 46 45 41 45 43 45 47 51 52 53 53 51 52
4 3 1 2 4 7 11 14 16 18 20 21 24 26 29 30 32 33 33 32 31 31 34 36 37 38 39 38 40 44 46 50 52 50 51 52 56 55 53 54 56 59 59

GFSMW_500_spd_105.txt.gz
Wind_Speed
40 41 41 42 42 41 39 37 37 40 42 44 45 45 45 47 50 51 54 55 58 59 59 57 49 48 44 46 50 53 51 51 47 43 37 35 36 36 33 30 31 33 34
43 44 45 43 42 41 39 38 39 41 45 45 45 46 48 51 54 56 59 62 64 66 66 59 51 52 50 51 48 51 51 51 48 45 39 36 36 35 32 31 32 33 31
44 45 45 45 43 41 39 40 41 43 46 49 48 50 54 57 61 63 64 68 67 66 60 68 52 53 50 44 46 50 53 52 48 44 40 37 37 36 33 32 31 31 28
43 43 44 44 40 39 40 41 43 46 48 49 52 53 57 60 64 67 69 62 60 62 62 58 60 54 52 48 47 50 51 51 48 44 39 38 38 36 31 31 29 30 29
42 43 42 40 39 39 40 42 44 47 51 49 52 57 60 61 55 53 55 52 53 54 52 51 56 55 54 56 54 57 51 51 46 43 39 40 39 36 31 29 30 30 28
42 42 41 41 41 42 42 43 45 47 49 48 51 55 53 47 48 51 51 48 48 46 45 50 55 54 62 57 57 60 56 52 46 44 40 41 42 36 32 30 30 31 30
41 41 42 44 44 43 42 43 44 45 46 46 47 49 44 45 47 48 48 49 45 43 41 46 51 59 59 53 44 54 51 45 46 43 42 43 39 38 32 31 32 31 31
40 39 42 45 44 42 41 42 41 42 45 43 46 42 44 43 41 39 41 43 41 42 38 42 46 50 53 41 45 44 39 45 40 45 45 43 39 38 33 30 30 32 32
36 38 41 43 42 40 40 39 38 41 43 42 38 39 37 37 35 36 40 40 38 40 38 42 44 46 46 47 43 46 47 38 40 42 45 40 39 37 33 30 30 31 34
38 38 39 40 39 39 36 35 38 41 38 37 37 37 34 32 33 34 40 39 37 35 37 39 40 42 45 43 42 41 38 44 38 45 45 37 37 35 33 31 29 31 31
38 38 37 37 37 37 33 35 37 38 38 35 34 32 29 31 31 31 31 33 34 36 38 34 40 46 41 41 39 33 46 45 46 43 37 35 34 31 30 30 30 30 32
37 36 35 36 36 36 34 35 37 39 37 36 34 30 29 30 31 28 32 35 35 37 40 33 36 40 40 36 31 35 41 40 37 37 36 33 33 31 30 31 32 31 34
37 36 34 35 36 38 37 36 40 41 39 35 35 31 28 30 35 31 32 32 31 38 36 37 34 37 36 41 35 32 20 30 25 31 30 31 32 33 33 34 34 36 37
39 37 36 36 36 37 39 40 44 43 39 36 36 32 30 26 26 30 32 34 29 38 38 38 34 33 31 34 34 35 35 30 32 31 32 32 33 34 35 37 37 38 39
41 41 41 41 40 39 41 43 45 41 40 36 38 30 30 31 28 32 34 29 24 34 34 31 31 34 36 30 33 36 37 36 31 32 33 33 32 34 35 36 37 36 41
47 49 48 47 45 44 43 44 42 38 34 32 31 28 26 32 31 35 37 19 21 27 32 35 36 35 37 29 32 40 38 36 29 34 34 34 34 35 34 35 32 38 38
54 53 52 50 48 45 42 38 36 34 32 30 28 25 20 26 25 30 35 28 23 30 34 37 32 33 32 31 29 30 38 36 33 35 35 32 34 33 33 29 30 31 30
44 37 33 31 26 28 30 32 33 32 24 20 25 21 22 18 16 19 31 29 28 33 32 36 39 38 33 31 35 33 40 39 36 34 31 32 34 35 32 27 27 22 29
16 15 18 19 24 25 25 28 24 16 12 13 13 17 20 25 21 17 19 28 26 29 31 37 37 37 34 38 37 43 43 43 38 35 31 33 33 33 31 28 27 23 19
10 12 14 18 21 21 16 14 7 10 11 9 9 15 13 18 18 19 20 23 22 28 35 30 31 47 43 40 39 45 48 47 42 38 34 32 31 31 32 31 30 27 21
7 9 8 11 11 9 8 7 6 7 8 11 10 9 8 16 19 23 22 21 19 22 30 32 37 42 44 49 47 50 54 49 46 40 37 35 34 34 32 32 32 30 26
8 11 9 7 5 5 5 3 2 3 4 5 7 14 14 9 9 15 19 19 21 19 21 29 29 32 36 43 48 56 50 49 47 43 42 40 40 39 39 38 36 36 34
8 9 10 7 4 2 1 3 4 5 6 7 8 8 10 15 17 15 13 20 22 23 20 20 28 41 38 45 45 46 46 47 51 44 45 46 46 45 45 44 42 41 42
9 7 6 5 4 5 6 8 10 12 13 14 15 16 16 16 16 16 17 21 22 21 24 22 22 27 31 35 40 45 45 47 52 59 51 50 47 53 49 48 49 50 48
10 8 7 5 5 6 7 9 11 13 15 17 18 20 22 23 25 25 24 24 23 25 28 30 29 26 27 29 35 39 39 39 43 46 50 58 61 61 57 57 53 57 58
11 9 7 6 6 7 9 12 15 18 20 22 24 25 26 27 27 28 29 31 33 34 33 33 34 35 37 37 37 37 37 39 43 46 50 53 53 53 53 55 58 53 53

GFSMW_500_spd_108.txt.gz
Wind_Speed
55 54 51 45 45 44 40 39 39 40 41 42 42 43 42 42 42 43 45 47 48 47 49 48 49 46 52 54 48 47 47 49 50 51 49 50 45 44 38 36 38 36 37
53 55 49 45 46 44 42 41 40 41 40 41 41 40 40 40 41 44 45 48 50 49 50 51 53 55 64 64 53 50 45 48 49 48 49 52 44 42 39 37 39 38 38
59 56 48 47 48 46 43 42 41 40 41 41 41 40 41 40 44 47 50 51 53 56 57 59 60 58 69 63 50 55 51 50 54 53 50 53 45 41 40 39 39 39 38
54 51 48 48 47 45 44 42 41 41 41 41 42 42 43 44 48 51 53 55 57 59 63 65 68 66 66 67 64 48 47 43 44 48 47 54 43 38 40 39 40 39 37
54 45 46 46 45 43 42 43 44 42 40 40 41 42 43 43 46 50 54 60 64 66 70 69 72 72 69 71 69 67 55 54 47 48 49 51 43 37 40 39 39 36 37
40 44 44 44 42 41 42 43 42 40 40 41 42 43 41 44 47 53 60 61 59 58 60 54 57 64 64 67 65 69 68 50 49 47 57 46 47 40 42 40 34 35 35
40 41 41 44 42 43 42 41 42 41 41 41 41 40 40 46 52 56 55 54 50 54 55 60 45 46 46 49 52 54 51 49 47 51 55 48 56 47 41 38 36 33 36
31 35 38 39 40 41 42 42 43 39 37 38 40 41 44 50 53 51 46 48 49 51 45 29 34 40 42 43 51 53 50 53 49 51 55 57 59 48 40 37 36 33 36
28 35 37 39 43 43 44 43 39 36 36 37 39 40 44 50 47 44 46 42 44 42 41 38 41 46 42 43 48 56 55 51 56 53 50 55 53 45 41 39 34 35 32
45 39 37 41 42 42 43 42 38 35 37 38 36 41 45 44 41 41 43 40 37 36 39 42 43 42 42 42 43 51 48 49 50 50 41 35 43 45 40 40 34 36 35
37 39 42 42 43 42 42 39 37 35 36 35 36 40 44 39 39 39 36 36 33 37 39 41 39 41 38 40 41 42 43 35 47 42 44 37 38 43 42 35 35 36 36
37 38 43 43 42 41 39 38 38 36 35 36 40 40 43 38 38 37 33 29 32 35 41 39 37 36 34 32 36 39 39 40 42 48 46 37 38 42 40 38 36 35 37
41 46 44 42 38 38 37 38 37 36 35 38 42 42 43 38 37 36 34 28 29 26 30 34 35 37 37 33 36 36 34 37 41 42 31 39 37 41 40 38 35 36 36
42 42 40 37 38 36 36 39 37 36 38 40 44 45 44 38 38 37 35 32 32 31 32 36 36 34 38 29 30 33 28 28 26 29 29 31 36 40 38 36 36 36 37
40 39 38 37 36 34 37 37 38 40 41 42 46 48 44 36 38 41 34 29 29 33 33 28 31 31 39 31 26 28 33 35 30 33 31 32 36 38 37 38 39 40 40
45 41 40 39 38 39 39 39 40 40 43 44 48 48 36 33 36 34 39 30 36 23 30 28 37 31 33 28 29 30 31 28 26 35 30 32 37 37 37 37 37 38 38
48 48 46 46 47 46 46 45 44 44 43 45 46 37 36 31 31 29 24 27 29 32 27 25 35 42 28 32 34 31 32 29 33 36 32 33 37 35 36 39 38 37 39
47 47 46 44 44 44 41 39 39 38 39 38 34 34 34 28 25 20 19 25 24 25 23 27 26 30 33 32 35 34 30 35 36 36 35 35 36 35 38 40 37 35 39
31 27 20 17 16 18 20 23 22 25 26 27 29 22 18 18 21 24 21 17 20 30 30 31 33 28 35 32 33 32 33 33 32 34 37 39 37 34 37 40 37 36 36
2 4 7 6 6 8 9 15 23 18 18 16 11 9 6 13 15 18 19 22 19 21 29 29 31 30 38 36 36 34 39 37 37 36 36 42 40 39 38 37 38 37 36
6 8 7 4 4 4 8 9 3 3 7 11 12 9 7 4 2 9 16 15 15 19 24 23 30 33 33 40 42 46 47 48 45 45 42 43 46 45 42 38 37 37 36
7 8 6 3 4 4 5 3 2 1 0 3 4 7 11 15 14 10 4 7 10 13 15 18 18 30 31 36 45 45 53 57 53 49 50 47 51 49 45 41 40 39 41
7 7 7 5 6 6 7 5 4 3 5 7 8 9 10 11 11 13 17 19 14 11 10 13 15 19 22 29 39 43 40 48 48 50 53 59 52 50 47 46 44 43 43
9 8 8 8 7 6 6 5 4 5 7 8 9 11 13 14 15 16 17 17 17 20 22 20 18 19 18 18 22 30 36 40 44 47 44 53 54 51 50 51 51 49 49
12 12 11 10 10 9 8 8 9 10 12 15 17 18 20 21 22 22 23 23 23 23 24 25 28 29 28 25 23 25 27 31 35 37 44 51 51 55 62 61 65 54 55
12 11 10 9 9 9 11 13 16 18 21 24 25 26 27 27 28 28 30 31 31 32 34 33 33 33 34 35 39 38 35 33 31 31 35 38 43 50 53 58 56 57 58

GFSMW_500_spd_111.txt.gz
Wind_Speed
56 65 62 58 55 50 48 48 49 47 44 42 42 42 42 43 43 43 43 44 43 43 40 40 44 47 46 46 47 49 54 53 47 47 45 45 44 39 42 42 41 40 38
52 61 56 55 55 52 47 48 47 47 46 43 41 40 41 41 41 41 40 40 41 42 42 43 45 47 48 49 51 53 59 59 55 52 47 45 43 43 46 47 44 41 38
54 55 50 46 48 44 43 46 47 47 46 44 42 41 40 40 40 40 39 38 40 43 45 47 50 49 53 55 57 60 67 82 75 58 52 45 43 44 48 47 42 40 39
50 39 51 56 49 42 44 43 45 46 45 43 42 41 41 41 42 40 40 40 43 46 49 51 54 58 57 62 62 64 62 70 56 60 54 47 51 50 49 51 43 42 41
51 38 53 47 35 41 42 42 44 45 44 43 42 42 42 42 41 41 42 44 47 49 50 51 55 61 64 65 66 71 72 66 61 66 47 49 51 47 52 45 42 45 47
50 41 53 43 39 40 41 43 43 43 42 42 41 42 43 43 42 42 42 42 45 48 52 57 62 65 66 64 63 73 72 72 71 71 61 54 49 46 48 49 41 41 46
48 45 50 47 46 44 38 42 40 41 40 39 40 41 44 41 40 42 43 43 47 53 57 59 63 57 55 56 65 70 62 65 68 68 52 48 51 53 59 49 43 41 44
46 45 43 44 45 40 40 42 42 41 41 42 43 40 41 40 40 41 41 44 51 54 56 54 52 53 57 58 70 62 46 52 56 60 53 52 56 59 55 52 45 41 43
40 39 38 37 29 34 37 37 37 39 40 40 40 41 40 39 39 39 42 46 52 51 46 49 48 49 51 40 33 34 40 45 45 44 51 52 49 48 49 50 50 42 43
47 46 45 30 29 38 40 39 39 40 43 43 40 40 39 39 39 40 42 46 48 44 44 46 45 43 38 38 37 31 36 39 42 45 39 43 45 43 47 48 49 49 45
42 42 36 37 40 34 37 41 44 43 41 41 40 39 39 38 38 41 43 44 45 42 42 39 36 31 33 35 30 32 33 38 41 42 47 44 41 40 41 36 46 51 42
42 47 42 40 37 38 38 42 42 43 41 39 39 38 36 38 40 42 43 45 43 39 38 36 31 33 35 32 33 33 34 36 35 36 40 44 42 35 44 42 42 45 40
41 43 45 43 44 45 46 51 47 42 39 38 39 38 38 38 42 42 42 46 44 41 37 35 34 34 38 37 37 34 34 34 31 34 36 35 33 50 43 43 38 43 39
33 36 40 45 49 51 52 48 44 43 42 41 40 38 38 39 43 43 44 46 44 38 35 37 34 33 36 38 43 34 30 33 35 36 32 33 40 38 40 44 42 42 41
50 48 52 51 50 47 44 40 38 41 41 41 40 40 40 41 43 45 46 49 38 35 38 33 37 34 32 33 34 36 34 32 34 31 26 22 28 36 43 35 38 41 38
51 52 53 50 45 42 40 40 39 38 40 41 40 42 42 43 45 47 47 42 35 33 37 32 30 28 30 36 30 26 28 28 30 27 28 30 26 31 38 39 39 37 37
47 48 49 50 48 44 43 41 40 38 38 39 41 42 44 47 48 49 41 37 32 29 33 32 35 27 26 26 32 26 29 30 28 30 33 33 33 35 37 35 36 38 38
47 49 49 48 45 42 40 40 39 37 35 37 37 37 41 42 42 37 36 32 27 27 31 31 30 32 22 27 34 30 36 31 31 34 32 29 32 33 34 35 39 41 40
30 26 18 16 16 15 14 14 14 13 19 20 21 22 24 26 27 27 25 22 24 22 22 25 25 24 23 25 32 34 40 38 36 37 33 32 37 36 34 36 37 42 41
9 6 11 5 4 4 4 5 6 11 13 9 10 10 10 4 4 16 19 16 15 20 19 19 27 28 25 29 28 34 32 39 37 38 36 38 38 40 39 40 39 40 39
9 4 2 2 0 2 4 4 4 5 5 4 8 9 9 9 9 2 8 8 12 12 11 14 20 26 28 28 24 33 37 32 36 41 37 40 40 41 43 45 42 43 40
4 5 6 6 7 10 11 9 4 3 4 7 6 6 8 10 12 16 18 10 3 5 9 12 13 17 24 28 34 36 45 42 45 51 46 44 45 44 44 45 47 48 45
5 12 13 13 11 9 7 7 8 7 7 8 9 8 8 9 12 14 13 13 16 19 17 11 11 13 18 19 28 34 36 44 43 49 50 45 53 49 53 52 52 53 51
12 10 9 8 8 8 7 6 10 8 7 7 8 11 13 15 16 16 15 15 16 16 16 18 20 22 20 17 19 23 27 34 37 36 42 44 44 45 56 55 61 57 57
9 11 10 9 8 7 6 5 4 5 7 10 13 16 18 20 21 21 21 21 22 22 24 24 24 24 25 27 30 28 25 24 28 39 48 45 44 44 47 48 55 59 64
11 9 8 6 4 4 3 4 6 9 12 14 15 17 18 19 21 22 23 24 25 25 27 28 29 30 31 32 34 35 37 39 41 35 35 39 44 46 46 45 46 51 56

GFSMW_500_spd_114.txt.gz
Wind_Speed
57 59 62 64 69 70 68 61 54 54 52 52 52 52 50 46 45 46 46 46 45 45 44 43 42 42 46 43 47 50 48 51 53 55 57 55 52 50 47 46 41 37 40
51 56 52 51 52 59 62 60 55 55 54 51 51 51 50 47 45 45 45 45 45 44 44 43 42 42 42 44 45 44 48 49 52 57 60 64 58 51 50 48 46 41 38
48 53 48 49 43 44 44 50 49 55 56 54 51 50 49 47 46 44 44 45 43 43 43 43 42 42 44 46 48 49 52 54 56 57 59 74 67 53 52 50 47 44 39
57 71 58 46 48 50 49 52 48 59 55 53 49 49 48 46 45 44 44 43 42 42 43 44 44 45 47 48 51 53 57 60 59 61 61 47 54 41 50 47 48 45 42
52 40 54 55 53 46 48 50 52 43 49 52 47 46 47 45 44 44 43 43 43 43 45 46 47 49 50 51 53 56 60 63 62 60 64 62 65 60 51 44 55 49 48
48 49 40 41 40 42 41 40 43 45 49 50 45 46 45 44 44 43 44 45 44 45 48 49 50 52 52 53 54 57 63 67 72 71 71 71 74 65 57 43 53 52 52
42 50 43 37 44 43 49 45 42 40 46 40 41 46 45 43 43 44 45 44 45 48 50 51 51 51 54 58 62 63 66 68 71 71 68 70 72 71 66 57 51 46 49
46 47 46 44 54 54 52 43 47 50 49 46 43 40 40 41 42 44 46 47 49 48 48 49 49 55 60 64 61 58 58 59 60 61 59 67 68 70 69 60 60 59 53
49 47 50 50 45 47 44 41 46 51 46 45 44 41 38 39 40 45 46 43 46 47 45 48 52 57 54 54 51 51 57 55 53 60 63 61 60 53 58 49 52 53 56
39 44 47 46 50 40 42 43 37 37 39 37 41 40 36 39 40 43 44 43 45 45 47 48 51 51 51 51 51 52 52 52 46 41 35 39 37 37 45 48 46 52 47
34 28 25 32 45 40 40 40 38 32 29 29 34 39 42 40 41 43 44 43 44 45 49 45 43 46 48 47 47 45 41 38 38 32 33 36 34 34 39 52 53 51 48
25 34 33 31 35 38 40 42 41 40 40 39 42 42 41 40 42 42 43 44 45 46 47 46 43 45 45 43 41 38 36 38 37 31 33 34 32 41 34 47 45 41 41
26 26 33 42 43 41 40 40 42 44 44 47 51 48 41 38 41 41 42 45 44 47 44 45 43 43 43 42 40 36 37 36 38 35 34 32 31 38 43 42 43 39 39
44 32 29 44 41 40 40 42 44 49 52 53 49 46 41 40 41 40 42 46 47 45 47 45 45 40 39 39 39 39 41 43 38 34 35 29 31 36 45 44 47 42 40
45 45 44 43 43 43 43 47 53 54 54 49 44 41 39 40 41 41 44 45 47 46 43 43 44 38 37 36 38 38 42 41 37 42 33 36 34 30 39 41 39 40 41
41 43 50 52 53 55 56 56 52 47 42 41 41 40 40 42 42 44 44 44 46 47 44 45 39 38 30 32 35 39 31 36 37 39 32 32 33 31 29 31 35 35 37
42 43 44 45 47 49 50 47 44 43 43 42 41 41 41 43 44 45 45 46 48 47 45 41 40 33 27 27 28 31 32 29 34 41 44 36 34 32 26 24 30 33 39
43 45 47 49 49 49 48 47 48 49 48 44 40 39 40 42 42 46 48 49 49 46 40 38 36 33 26 28 32 28 30 29 33 37 36 35 31 36 30 28 34 41 45
35 33 31 28 28 30 30 30 28 25 24 17 18 21 20 21 23 26 31 36 37 34 33 33 32 25 27 27 27 26 28 34 32 36 34 32 31 29 31 36 38 41 41
12 11 15 14 11 7 4 4 4 3 5 12 7 6 6 10 13 12 13 15 20 27 27 27 26 21 22 27 25 24 23 31 34 31 35 33 33 36 35 39 38 41 38
16 14 6 7 7 6 4 5 9 9 7 7 6 11 12 5 7 10 10 14 11 2 10 11 11 17 22 24 30 27 28 26 34 32 38 37 34 41 38 39 40 44 41
4 5 6 5 5 6 10 12 11 8 4 5 4 7 8 8 9 11 12 13 15 20 20 18 12 5 8 16 25 28 28 31 36 36 39 51 43 42 36 42 41 43 47
6 6 6 9 10 10 8 8 6 7 9 8 5 4 4 7 8 10 12 13 16 16 16 16 17 18 20 15 12 16 26 32 38 39 40 44 41 44 43 44 49 51 51
12 12 10 8 7 5 10 9 6 3 2 3 5 6 8 10 12 14 15 18 19 20 19 19 19 19 20 21 22 25 22 19 24 33 44 50 51 52 53 50 51 54 57
11 9 9 10 8 5 3 2 1 2 3 5 7 9 12 14 16 17 19 20 21 23 24 25 25 26 26 26 26 27 29 31 32 28 28 34 39 45 54 55 62 62 59
12 10 7 6 5 4 2 2 1 2 4 6 9 13 17 21 22 22 23 24 24 25 26 28 30 32 32 32 33 34 34 34 35 37 38 39 38 36 41 50 51 51 50

GFSMW_500_spd_117.txt.gz
Wind_Speed
74 76 78 76 76 75 73 70 68 64 65 64 59 58 55 53 54 53 52 52 50 50 48 46 44 44 43 42 42 44 41 45 41 47 50 44 54 52 55 56 52 45 42
70 69 71 67 61 61 57 51 57 61 62 62 55 54 56 55 54 54 53 55 53 51 50 48 46 44 44 43 43 44 44 45 46 47 48 50 55 53 51 63 57 43 45
63 59 61 56 50 53 55 51 55 53 48 48 51 57 57 56 56 54 53 53 53 52 50 49 47 45 45 45 45 45 46 48 47 48 51 52 52 56 55 54 55 53 46
50 49 52 50 49 55 58 50 50 41 47 48 52 52 54 56 54 54 52 50 50 51 50 49 47 45 45 46 47 48 48 49 50 51 53 55 55 55 56 51 54 54 51
52 49 48 45 49 48 46 52 46 42 46 47 51 53 51 55 55 54 50 50 50 50 50 49 48 47 46 47 49 51 52 52 54 55 56 58 59 58 56 52 48 47 32
43 43 41 43 42 54 51 51 59 53 46 44 42 42 49 49 56 48 47 47 48 49 50 49 48 47 48 51 52 54 55 55 56 59 61 62 62 63 62 61 60 61 68
37 42 40 37 37 41 45 44 43 48 41 41 40 38 40 41 47 47 42 46 46 48 49 49 49 49 51 51 53 56 55 55 55 58 62 66 67 69 71 70 67 66 68
30 34 41 41 39 33 37 34 37 40 40 45 42 43 46 47 46 45 46 45 47 47 47 48 48 48 51 53 55 56 55 58 57 60 66 71 73 73 73 66 63 61 67
36 31 34 35 30 40 33 40 38 44 49 42 31 33 34 35 41 45 46 47 50 48 47 47 50 52 53 54 54 54 58 58 61 64 63 61 62 61 62 61 57 63 53
29 39 32 45 44 45 38 44 42 45 43 36 39 32 28 26 28 36 48 49 50 52 52 49 49 50 52 52 50 52 58 62 60 59 57 57 61 61 58 57 60 58 56
22 20 29 29 32 43 51 51 50 48 44 40 38 32 32 31 33 35 34 44 42 45 47 48 48 50 49 49 51 51 56 56 58 52 55 56 55 52 45 44 38 41 44
32 30 25 21 17 15 24 27 26 28 31 33 40 43 37 37 38 40 37 37 42 46 46 45 46 49 47 43 47 53 55 56 54 52 51 46 43 41 37 35 37 39 39
34 34 36 34 25 27 29 31 35 33 35 38 40 42 42 43 47 45 39 37 41 41 44 44 45 47 47 44 44 47 53 56 51 47 42 41 38 36 38 38 40 42 41
34 35 37 38 39 39 34 38 38 38 43 44 45 45 45 47 50 47 44 39 40 40 43 45 48 46 43 46 50 51 54 49 47 43 40 39 41 38 40 37 37 38 40
38 39 39 40 42 44 44 39 42 42 43 44 47 50 49 52 51 50 47 42 40 41 44 47 47 46 43 45 46 52 47 45 42 42 42 40 40 35 39 39 37 37 37
39 38 37 37 37 40 45 47 50 52 52 53 51 48 48 43 42 44 42 41 39 40 43 45 46 46 44 45 45 45 41 42 37 37 44 46 44 48 36 36 36 39 43
39 40 41 41 42 42 40 40 44 49 53 51 49 48 45 42 42 43 44 43 41 40 39 41 44 43 44 44 44 38 39 35 32 34 33 37 35 42 33 36 33 42 41
41 41 42 43 43 42 44 47 46 44 45 46 43 42 41 41 41 44 44 46 47 44 43 44 45 47 47 46 46 37 37 30 27 29 32 33 39 28 32 33 33 34 33
35 33 35 34 30 30 31 34 32 29 25 19 14 13 10 13 16 21 24 30 38 44 47 49 47 46 46 43 40 36 32 31 29 31 32 37 35 41 36 31 38 33 38
20 19 18 19 19 16 14 7 4 3 3 1 6 5 10 8 10 14 17 22 21 24 28 27 30 31 34 34 34 36 34 28 30 35 36 39 43 41 36 40 41 38 38
20 20 17 11 10 9 5 3 4 3 4 4 8 10 8 8 5 7 8 9 10 11 9 7 8 15 16 21 23 27 29 31 30 28 29 39 37 44 38 43 42 36 40
13 10 10 7 6 4 2 3 8 10 8 7 7 5 6 6 6 9 10 12 13 15 18 18 18 19 20 20 18 8 10 18 26 32 33 38 40 41 43 45 39 42 44
10 6 6 5 5 4 5 6 4 8 9 7 4 3 3 4 5 6 9 10 12 14 17 19 21 23 24 24 24 23 26 20 13 21 32 36 43 45 51 45 46 43 43
7 6 9 9 8 6 9 7 5 4 1 1 3 3 4 6 10 12 14 16 17 18 18 20 21 22 23 26 27 26 27 27 30 30 21 23 34 40 46 48 56 50 48
11 10 9 9 5 4 1 2 2 3 4 3 1 5 9 14 16 16 16 15 16 17 18 20 20 23 25 26 28 29 31 32 33 32 34 38 36 28 33 37 49 56 55
11 11 10 6 5 5 4 4 6 7 5 3 6 10 14 18 19 18 18 20 21 22 23 25 29 30 32 32 33 34 35 36 37 38 38 38 38 40 42 41 36 39 47

GFSMW_500_spd_120.txt.gz
Wind_Speed
64 64 66 69 70 71 71 71 70 68 66 60 58 61 64 59 59 61 63 62 59 57 55 52 50 51 51 51 53 50 51 50 47 38 53 34 40 42 44 36 40 30 35
68 70 72 72 72 71 67 63 65 61 55 51 55 55 57 57 57 60 61 63 61 60 57 56 54 53 51 51 52 53 52 49 49 45 42 44 42 39 44 40 34 42 38
68 68 68 68 65 59 55 52 47 46 46 50 51 49 47 46 54 55 56 61 61 59 59 58 56 54 54 51 51 51 50 48 49 49 49 49 43 40 39 42 43 43 45
61 60 60 58 54 51 50 48 43 44 52 44 52 51 48 44 43 48 54 60 59 57 58 56 56 55 56 53 50 50 49 49 49 48 49 50 49 48 45 46 47 47 47
51 53 52 51 48 43 38 38 39 43 49 55 53 46 35 38 40 43 48 52 54 59 57 57 53 54 54 53 49 48 49 50 49 48 47 49 52 53 52 50 50 48 48
47 50 47 46 39 38 34 34 33 35 46 38 42 43 35 36 45 38 37 45 46 52 59 56 52 52 52 52 50 49 48 50 51 50 52 52 53 54 56 56 55 52 50
46 43 41 35 30 38 31 30 33 30 40 46 43 42 36 37 38 41 41 38 39 44 55 55 54 54 52 52 50 50 50 51 53 52 53 55 56 57 57 57 58 58 57
42 39 36 38 40 33 38 38 29 48 36 46 40 38 32 35 31 34 35 34 39 41 55 49 48 52 52 51 51 52 51 54 54 53 56 54 55 57 57 58 60 63 65
32 22 25 29 35 32 39 40 34 41 29 29 29 30 31 36 25 23 20 20 29 39 43 56 57 52 52 51 50 51 52 51 52 53 52 53 55 56 57 61 62 65 64
26 29 31 31 27 32 35 43 48 36 42 35 34 29 30 35 32 25 25 25 29 30 33 45 45 48 50 57 57 53 52 54 55 53 50 52 54 56 59 59 62 61 59
27 31 27 28 30 29 33 40 45 49 45 44 42 41 44 43 46 30 30 28 27 30 32 34 47 45 46 49 50 51 51 51 50 50 53 55 58 56 58 60 59 60 61
31 29 31 32 31 32 31 29 20 34 39 36 31 28 26 29 31 32 33 34 29 30 29 33 35 40 50 46 49 49 49 49 49 47 49 55 58 58 61 58 56 58 54
37 37 32 33 34 35 34 35 30 28 27 24 30 31 33 34 37 37 37 39 40 37 34 32 35 36 40 43 45 48 47 49 48 46 50 51 55 59 57 52 51 44 41
31 32 34 35 37 39 37 37 36 37 35 35 35 34 35 39 40 39 43 40 40 41 41 36 34 38 39 42 45 46 45 44 44 50 54 56 58 57 51 49 45 40 41
35 36 37 37 35 35 37 37 38 37 36 38 39 41 41 43 44 44 45 46 44 44 40 40 36 35 39 41 44 43 45 43 45 48 52 56 55 50 48 44 41 44 41
39 39 38 36 35 35 34 34 33 33 34 35 39 41 40 42 45 41 40 45 46 46 43 42 37 35 35 36 37 40 40 41 46 48 51 52 48 48 49 44 44 43 38
38 36 34 36 37 37 36 34 34 32 31 31 32 33 32 33 34 36 39 40 41 41 43 41 38 37 37 37 37 40 41 43 44 47 50 48 47 49 43 47 48 47 46
35 34 33 32 31 30 29 27 30 30 30 29 26 21 20 21 21 25 27 29 31 33 41 45 44 43 43 41 40 39 41 42 43 45 47 47 47 47 46 39 40 49 54
32 30 24 23 22 21 19 19 17 13 11 8 4 2 4 7 8 11 13 16 19 21 25 29 29 32 37 39 40 41 42 44 45 45 45 45 46 41 35 33 38 50 40
28 23 20 22 20 14 11 9 9 5 2 4 3 8 12 9 7 7 8 8 6 7 8 12 17 23 26 28 31 33 36 40 42 46 43 45 44 40 33 35 32 33 35
22 20 21 19 14 12 9 7 4 1 1 3 7 7 4 3 2 6 5 7 9 11 13 14 13 14 13 10 14 20 24 29 34 38 40 45 40 41 40 37 37 36 33
19 16 14 9 9 8 7 5 3 3 5 6 7 7 6 5 5 5 6 8 9 11 13 14 15 17 19 20 22 21 21 20 16 20 23 30 35 34 35 41 42 42 49
11 11 7 8 10 7 3 1 3 7 10 8 4 3 3 3 5 8 11 12 13 13 13 13 15 17 19 20 21 23 25 26 28 30 30 28 18 20 29 31 42 48 48
11 10 9 7 4 3 6 6 5 4 2 2 2 1 2 5 9 12 13 14 14 16 16 16 16 17 20 23 25 27 28 29 28 29 31 33 34 35 32 26 31 41 43
12 9 9 8 6 5 3 1 2 3 3 3 4 5 7 11 13 15 15 16 16 17 19 20 21 23 23 25 26 28 29 30 30 31 32 33 34 36 36 38 37 31 39
10 10 9 10 7 4 4 4 5 5 7 8 8 10 12 15 17 19 18 17 18 19 21 22 25 27 29 31 31 32 34 35 36 37 37 37 37 37 39 40 40 41 42

GFSMW_500_spd_123.txt.gz
Wind_Speed
52 53 54 54 57 59 63 66 69 70 71 69 67 69 69 63 63 61 61 64 66 68 65 65 65 61 57 54 53 53 54 53 52 47 60 49 26 46 45 36 29 37 32
55 56 58 59 61 64 67 69 70 71 70 70 63 60 62 63 61 61 59 61 65 67 67 64 65 64 61 57 56 55 54 54 54 55 48 48 42 42 40 30 33 30 36
58 59 61 61 62 63 63 61 60 60 59 58 55 54 58 57 55 49 54 59 57 63 65 66 63 63 61 59 57 57 56 55 54 56 56 53 49 48 43 41 39 37 36
59 60 60 62 62 63 60 55 55 49 46 46 48 49 51 51 51 48 43 44 44 47 55 61 62 61 62 60 59 58 57 57 55 55 55 54 52 50 47 43 42 41 40
55 54 53 53 53 54 54 52 47 41 37 38 38 46 49 45 48 50 49 37 37 37 41 48 58 60 61 58 59 59 59 56 56 54 54 54 53 52 49 44 42 43 45
50 48 46 48 49 51 47 40 33 31 29 26 32 34 34 43 46 45 28 36 33 31 32 39 47 52 63 60 57 58 56 56 56 54 53 52 52 51 51 47 44 45 45
43 42 43 44 48 46 43 42 36 31 32 29 35 25 34 29 42 40 34 31 35 36 37 39 39 42 52 59 62 58 54 55 55 53 52 51 50 50 49 50 49 48 48
40 39 40 40 37 28 30 38 29 30 38 37 43 28 20 33 41 49 37 26 28 18 22 30 33 37 42 52 57 58 55 52 52 51 51 51 50 49 50 51 51 52 52
35 36 37 34 33 35 34 23 25 30 31 36 38 26 24 25 27 27 29 30 19 18 18 23 28 32 40 43 46 58 56 50 50 51 51 52 52 52 50 52 52 53 53
35 34 33 29 32 33 34 28 29 24 21 29 36 38 33 28 25 27 29 29 33 19 22 22 25 30 30 39 46 51 57 56 50 48 49 49 50 50 50 50 51 53 52
31 30 30 33 30 31 32 32 27 30 31 31 32 31 39 38 34 35 34 34 35 23 26 25 23 24 26 33 38 44 51 60 53 54 51 49 49 48 52 51 53 54 52
30 29 30 30 31 34 35 33 30 29 29 29 30 33 29 33 27 24 23 21 20 25 27 28 29 24 23 26 32 41 40 39 42 44 47 49 51 47 46 47 48 48 51
33 33 31 30 30 31 34 36 35 33 32 30 29 26 25 22 20 21 24 26 29 29 30 28 26 23 23 25 28 34 37 40 43 42 44 45 44 45 46 47 48 51 53
34 34 33 32 32 33 34 35 33 33 33 32 31 29 28 27 28 29 31 34 35 37 39 37 34 29 26 24 28 34 36 40 41 42 43 43 43 44 48 52 51 53 52
35 35 34 35 35 36 36 35 33 32 30 30 31 32 32 31 34 35 36 39 41 38 39 36 33 30 28 27 26 32 37 40 41 42 42 44 45 46 49 49 50 51 52
33 34 34 33 34 35 34 33 31 31 28 28 29 31 29 30 32 32 33 33 34 34 34 34 34 34 33 30 29 29 34 37 39 41 43 41 44 47 49 49 49 49 52
33 33 33 33 33 33 31 29 27 26 24 24 24 24 23 24 24 25 26 26 27 29 31 32 35 37 36 34 32 31 31 35 38 40 43 45 46 48 49 50 49 52 51
33 32 31 29 28 25 23 22 20 21 18 15 16 18 18 18 18 16 16 16 15 17 18 20 22 24 26 28 29 31 29 33 37 40 43 46 47 48 49 48 49 50 52
29 28 26 24 20 21 19 15 13 12 12 8 7 10 11 10 12 12 9 10 10 11 10 10 13 16 18 21 22 24 25 28 33 35 38 41 45 47 46 46 49 47 47
25 23 23 20 18 18 14 14 12 11 8 6 8 8 13 16 12 7 3 1 3 4 6 9 10 9 9 11 13 17 19 22 26 29 32 36 39 43 44 44 45 44 48
22 21 18 16 17 12 8 6 6 6 4 7 12 14 9 4 3 3 3 4 5 8 11 13 13 13 13 14 16 18 20 20 17 17 16 20 26 32 36 40 44 43 46
18 16 15 12 9 7 7 6 2 4 5 8 10 7 4 3 1 1 5 8 11 13 13 13 12 11 11 12 13 15 17 18 19 22 23 24 23 21 21 30 38 42 48
16 12 10 8 8 4 2 4 9 11 12 10 4 2 2 1 3 7 11 12 13 13 14 14 15 16 17 18 18 19 20 20 20 20 21 22 23 25 27 28 23 29 36
13 13 11 9 4 5 5 7 8 5 4 1 2 2 2 4 8 11 13 14 15 16 16 17 18 19 19 20 24 25 25 26 26 27 27 27 27 27 27 28 30 32 27
14 13 11 9 7 5 7 9 5 2 3 3 4 4 6 8 12 15 16 17 18 20 21 22 21 20 21 22 23 24 26 28 29 31 32 33 33 34 33 32 31 31 30
12 12 11 11 7 9 8 6 5 4 4 5 6 9 10 13 16 19 20 20 21 22 21 20 22 24 25 27 29 32 34 36 37 38 39 39 38 38 38 38 38 37 36

GFSMW_500_spd_126.txt.gz
Wind_Speed
45 45 46 48 49 51 52 53 55 57 59 59 59 59 59 61 60 60 59 61 63 65 63 66 70 72 68 65 67 66 62 60 59 59 55 60 56 50 47 40 46 58 44
46 48 49 51 52 54 56 57 60 60 61 60 60 60 58 59 59 57 58 59 59 61 63 64 67 68 73 70 69 70 67 64 61 62 62 58 55 52 50 47 35 26 26
49 50 50 51 53 54 56 57 57 57 56 55 55 56 57 57 56 57 55 59 61 60 61 65 67 69 71 73 69 69 70 66 63 62 64 61 56 51 49 46 41 38 35
51 53 55 57 57 56 54 54 52 52 53 54 55 55 55 55 51 52 54 57 56 57 52 50 51 53 62 71 68 67 69 69 64 62 63 62 59 53 49 45 45 42 41
55 56 56 56 55 55 53 50 49 51 51 53 50 51 50 50 50 51 53 56 54 57 47 46 45 43 45 53 62 65 65 67 67 64 61 62 60 56 52 47 45 44 44
55 55 54 51 50 48 47 47 49 48 47 45 45 47 46 42 45 46 44 47 46 50 49 41 38 38 39 46 51 51 61 66 65 60 62 61 59 55 54 51 49 48 47
52 50 48 45 44 44 44 43 37 34 38 44 45 35 36 35 32 38 43 47 53 54 40 36 37 39 41 43 43 48 51 61 61 61 56 59 54 57 53 51 51 49 49
46 45 44 43 42 40 40 35 32 33 31 30 33 40 38 41 45 39 35 33 38 41 28 28 23 22 24 27 39 47 52 50 50 57 60 55 59 58 52 51 51 50 50
42 42 41 40 40 40 37 35 31 31 29 32 23 26 25 28 31 21 26 32 34 34 30 21 17 17 23 26 27 32 45 46 47 51 55 56 56 53 52 51 50 50 50
40 38 37 37 38 38 33 31 32 32 30 30 31 27 21 22 26 28 23 24 23 25 33 30 24 23 25 28 25 26 33 38 47 46 47 46 51 52 49 49 49 49 50
35 34 34 34 34 35 35 33 32 33 34 29 28 31 29 18 23 31 33 27 28 28 28 30 28 25 29 31 30 29 32 33 38 46 44 45 46 48 48 48 50 48 50
35 36 38 39 39 38 37 34 32 31 33 30 30 28 28 23 18 18 21 26 29 34 28 23 20 24 25 27 28 24 30 32 32 37 41 48 51 49 48 47 47 47 48
40 39 39 38 36 37 36 34 31 31 32 33 33 31 30 28 19 20 24 23 24 22 21 23 26 27 29 31 30 27 27 30 30 34 41 39 37 41 47 49 49 55 58
36 36 34 34 35 36 35 35 35 35 35 33 34 33 32 32 29 24 23 23 25 26 29 31 33 33 34 34 31 29 26 30 32 33 35 36 40 40 42 45 46 47 47
31 32 33 32 36 36 37 36 35 36 36 34 33 33 33 33 33 30 31 31 32 31 33 35 38 37 39 37 33 33 31 30 31 34 36 38 37 39 42 46 48 46 44
36 34 34 34 35 35 36 35 36 36 34 33 33 32 30 31 32 31 32 32 34 36 36 36 37 36 35 35 34 34 36 37 34 35 36 38 41 42 44 46 47 48 48
36 35 35 35 36 36 35 34 33 32 31 30 30 30 28 28 27 28 29 29 31 31 31 32 32 34 34 32 32 32 33 35 36 36 36 38 39 42 44 47 49 48 49
37 38 38 36 35 33 30 29 28 26 25 25 25 24 23 20 19 19 18 17 17 17 16 17 18 20 19 18 20 20 23 25 31 34 36 37 39 41 42 45 48 49 51
40 39 35 32 30 27 26 24 22 20 19 18 15 13 11 12 13 16 17 16 12 12 10 10 9 10 10 10 9 11 14 15 20 22 24 26 29 35 42 45 47 49 52
35 34 30 27 25 25 22 20 18 17 14 12 11 9 11 11 15 17 16 10 7 6 5 7 10 13 9 10 9 9 10 9 9 10 11 13 17 23 28 30 39 45 49
32 27 25 23 22 19 19 14 12 11 12 10 10 13 11 10 8 5 2 2 4 8 12 14 15 16 15 15 15 16 17 17 16 16 16 16 17 18 18 19 26 32 36
23 23 20 20 19 17 13 10 10 10 6 6 8 8 7 5 4 3 4 7 10 12 14 14 14 14 14 14 15 14 14 16 16 16 17 19 21 21 22 24 24 23 24
21 19 19 18 15 13 12 11 10 10 12 14 11 6 5 5 5 6 9 10 11 11 13 14 16 16 16 15 15 17 19 19 20 21 21 23 23 24 25 25 26 28 28
19 18 17 15 14 12 12 11 11 11 11 8 6 5 7 8 8 10 10 12 14 15 17 18 20 20 20 19 20 22 23 24 25 26 27 28 29 30 30 31 32 31 30
21 19 18 17 14 12 10 10 13 11 7 7 8 9 10 10 11 13 15 17 19 21 20 20 19 19 21 23 25 26 27 29 31 33 34 35 37 39 40 40 40 39 38
17 19 16 16 16 12 11 14 12 10 10 9 8 10 11 13 15 17 20 22 23 24 25 25 25 27 28 29 29 31 32 35 37 39 40 41 42 43 44 46 47 46 46

GFSMW_500_spd_129.txt.gz
Wind_Speed
40 40 41 42 43 45 46 47 49 51 53 54 56 57 58 59 59 60 58 58 56 54 54 53 56 59 62 65 68 67 66 67 69 68 64 65 62 60 55 61 44 51 49
40 41 43 44 45 47 49 51 53 54 56 58 59 60 61 60 59 58 58 57 56 55 54 56 58 59 61 62 65 67 69 68 69 72 70 68 67 67 65 64 57 50 50
43 44 45 46 47 49 51 53 55 57 59 60 60 59 55 52 53 53 54 55 55 56 58 59 60 63 65 67 67 67 70 70 70 72 72 72 72 70 68 63 58 49 48
45 47 48 49 50 51 53 56 59 61 59 58 54 53 52 53 54 54 54 53 55 57 58 60 60 59 59 63 65 66 71 73 74 73 75 72 72 73 68 65 55 51 44
48 48 49 50 52 55 55 56 55 52 49 49 50 51 53 54 53 51 51 53 56 58 59 59 57 58 57 54 50 51 56 62 69 68 73 73 70 70 68 60 57 51 47
50 49 50 53 57 56 54 53 50 48 49 50 52 50 49 47 50 50 52 50 52 54 56 58 56 53 54 52 52 52 55 57 57 54 59 66 68 65 65 64 56 52 49
49 51 55 57 55 52 48 46 45 46 46 44 41 42 42 45 48 46 49 50 48 47 47 51 52 50 50 49 51 48 48 51 50 53 53 56 63 64 59 59 56 53 52
52 54 55 54 51 47 45 43 43 43 42 40 39 40 38 40 39 46 52 49 51 52 51 53 50 50 52 44 43 44 46 44 49 49 49 54 59 62 59 58 55 52 49
51 51 49 46 46 43 43 41 42 39 37 36 36 39 37 36 34 34 37 41 44 41 39 42 39 34 36 32 30 28 27 32 37 40 47 51 56 58 60 56 51 53 53
47 45 44 42 42 43 41 39 39 38 38 38 40 38 40 36 31 31 32 38 34 33 31 30 33 33 29 30 27 27 25 32 35 37 38 44 48 53 53 51 53 53 50
43 43 40 40 42 43 43 42 42 42 42 42 43 42 40 38 37 31 29 34 35 28 32 24 22 29 36 34 30 28 32 36 35 37 37 37 43 48 49 47 47 51 50
42 42 42 41 43 47 45 46 45 43 41 40 40 38 37 35 35 33 31 29 29 32 31 32 28 32 35 31 29 29 28 30 34 39 37 35 38 45 47 47 46 46 47
46 44 42 43 47 44 45 44 43 40 41 40 38 38 38 38 36 35 33 32 30 29 30 31 32 29 28 27 29 30 31 31 31 35 38 33 33 34 43 48 49 47 47
47 44 43 46 44 40 39 40 40 37 39 40 38 39 39 39 36 36 35 33 34 29 27 28 28 27 29 30 32 33 35 36 35 34 34 36 33 33 38 45 51 55 49
46 44 45 42 39 42 43 42 42 40 39 38 38 41 40 37 36 34 34 33 33 35 33 33 32 33 34 34 37 38 38 38 38 39 37 36 37 36 37 40 44 45 53
49 46 45 44 44 40 40 40 41 41 39 39 39 39 40 38 37 35 33 32 32 32 33 33 33 36 36 37 38 37 38 37 37 38 39 39 39 40 40 41 42 44 46
45 42 42 43 43 40 41 43 42 40 38 37 37 37 37 38 34 31 29 28 25 25 26 28 27 26 29 28 31 31 34 38 38 38 38 38 38 41 44 45 44 44 46
40 41 41 40 39 41 43 42 39 36 33 33 31 31 33 30 23 17 17 15 17 16 14 15 16 16 17 17 18 19 22 24 27 31 34 37 38 40 43 46 47 47 46
44 41 39 40 41 43 42 38 33 31 28 28 27 27 23 15 11 13 14 17 20 17 13 12 12 12 13 15 14 15 15 16 16 17 20 23 21 22 26 31 36 45 48
40 35 40 38 42 41 37 30 30 24 24 22 19 16 11 12 11 12 17 14 10 9 7 7 9 12 14 13 14 14 14 13 14 15 16 16 16 16 17 17 20 23 28
34 34 38 41 41 33 27 27 22 21 19 17 17 13 14 10 7 9 6 4 4 6 9 11 13 15 17 17 18 18 17 18 17 17 18 19 20 19 20 20 21 21 22
32 35 37 37 28 26 24 22 20 18 17 15 13 7 10 8 6 4 4 5 7 10 12 13 14 16 17 17 17 18 18 17 19 19 19 19 20 21 22 23 24 24 25
33 35 30 24 24 22 22 20 19 19 15 14 13 10 8 5 4 6 7 9 10 11 11 11 12 14 16 16 17 15 17 19 21 22 23 24 25 26 27 28 29 31 32
30 24 24 23 22 21 19 18 19 16 14 15 16 11 9 7 8 10 11 11 11 11 13 14 16 18 19 18 18 20 21 22 24 26 28 30 32 34 35 36 37 39 39
24 25 23 22 21 20 19 19 18 15 14 12 11 11 10 10 11 13 14 15 16 17 18 19 20 22 23 24 25 26 28 28 27 28 31 34 36 38 40 40 41 42 44
24 23 24 24 23 22 20 19 19 19 15 14 14 14 14 14 14 16 17 19 21 21 21 23 25 26 29 30 32 33 34 34 35 36 37 39 42 44 45 46 48 48 49

GFSMW_500_spd_132.txt.gz
Wind_Speed
36 35 35 36 37 38 39 40 41 42 44 46 48 50 51 52 54 56 57 58 59 59 60 61 61 61 62 63 65 63 63 65 67 67 64 65 65 65 61 62 63 64 47
37 36 38 38 39 41 42 43 44 46 47 49 51 54 56 58 59 60 61 62 62 62 60 59 58 58 58 58 60 63 64 65 65 67 69 68 69 68 65 66 69 66 64
39 41 42 42 43 43 46 48 48 48 50 52 56 59 60 60 58 58 57 58 58 58 58 58 59 59 59 60 60 61 63 65 66 67 68 70 71 69 70 70 71 69 64
39 41 43 45 45 47 48 49 51 53 57 59 61 61 57 52 49 49 52 54 55 57 58 58 60 59 62 65 63 64 66 66 67 68 71 74 74 73 69 71 73 70 65
42 42 43 44 47 48 50 51 55 59 61 63 65 63 58 53 51 51 51 49 47 50 54 55 57 59 64 66 67 65 62 60 57 62 61 64 67 73 76 70 69 70 63
45 45 46 47 48 50 53 57 61 64 63 59 55 52 51 52 51 47 46 47 48 49 51 53 53 55 56 60 61 63 61 59 56 52 52 57 59 58 63 68 70 70 60
47 46 47 48 50 52 55 60 63 58 54 51 47 48 49 44 44 45 48 51 51 47 50 51 52 50 51 56 57 56 61 55 53 51 55 55 56 57 56 58 59 62 59
47 45 46 48 49 52 58 59 53 50 45 45 45 44 41 39 40 43 48 49 45 45 49 53 55 52 48 47 48 52 47 48 46 47 48 50 51 54 57 56 55 53 50
44 44 46 48 49 53 54 53 51 46 44 44 44 44 42 41 41 42 45 46 47 43 45 47 48 51 54 61 50 44 47 49 44 40 35 38 42 42 44 48 52 52 48
47 46 46 49 50 51 51 50 49 46 46 45 46 47 48 48 48 48 49 49 46 42 39 44 45 39 37 42 38 34 36 46 40 35 35 35 35 33 38 41 46 49 49
47 46 48 49 48 48 48 49 46 46 49 49 48 50 51 46 45 44 43 43 44 43 38 39 43 38 33 32 32 32 32 32 33 35 34 35 35 32 33 37 40 47 50
48 47 48 48 45 47 47 46 46 49 50 48 48 48 47 43 44 45 43 41 42 41 39 38 34 42 34 26 32 35 36 34 35 34 34 33 32 37 35 33 35 42 49
46 47 49 44 46 46 47 46 47 50 45 42 43 45 46 43 43 44 43 40 39 38 39 38 36 30 31 29 27 34 41 34 36 37 34 34 32 33 38 34 33 32 45
42 45 44 47 49 51 47 45 47 44 44 46 45 47 45 46 45 44 43 40 37 35 33 35 37 33 28 28 32 32 36 35 35 36 37 38 35 35 37 39 34 32 30
50 50 53 55 52 53 49 46 45 44 44 45 45 46 47 47 45 44 42 39 34 32 30 30 31 33 34 29 30 29 31 35 36 39 39 38 38 38 39 41 39 35 36
52 53 49 52 49 46 44 44 44 43 41 42 45 46 44 43 42 41 39 35 30 27 25 24 25 25 26 29 30 32 32 34 35 36 36 37 37 36 38 41 41 41 39
47 53 55 45 45 43 43 43 41 40 42 45 45 41 39 37 35 36 34 26 20 16 15 16 17 17 18 20 22 25 26 27 30 32 33 34 34 34 35 36 37 39 42
52 46 44 45 45 44 45 38 42 42 43 44 40 34 32 31 32 29 21 13 12 14 19 13 13 13 13 13 15 17 19 20 20 21 23 26 26 27 28 30 32 35 39
41 39 33 36 42 41 39 39 40 42 43 38 32 28 27 22 21 16 12 11 14 15 15 13 11 10 10 12 14 16 16 17 17 18 20 19 19 21 21 21 22 22 23
39 34 38 37 38 35 42 37 41 42 36 30 25 22 21 17 15 16 13 14 13 11 7 6 7 9 11 12 14 14 13 14 16 16 16 17 18 18 21 21 22 23 24
34 34 38 38 34 33 37 43 45 34 28 25 22 21 18 14 10 10 10 7 4 4 6 7 10 11 12 13 15 15 15 15 16 17 17 18 19 20 21 21 22 23 24
35 39 34 31 32 34 40 43 32 26 24 22 21 17 14 10 10 9 6 3 4 6 8 10 11 11 11 12 12 13 15 16 15 17 19 20 21 21 23 25 26 28 29
38 34 31 31 33 37 38 26 24 24 22 20 18 15 11 10 10 4 3 5 7 8 7 8 8 9 10 10 10 10 12 13 15 17 19 22 24 26 29 31 34 36 37
32 30 30 31 34 30 23 24 24 21 20 18 16 16 13 12 9 7 7 8 9 10 10 10 11 12 14 15 17 18 20 21 23 26 28 30 32 35 38 41 44 46 48
30 30 32 28 24 24 24 23 22 20 20 17 17 16 15 13 12 11 12 13 14 14 16 17 19 19 19 19 21 22 25 27 28 31 32 34 36 38 41 43 45 48 51
28 28 25 25 25 24 24 22 21 21 19 18 18 16 16 17 17 17 16 17 18 20 21 23 24 23 23 23 24 26 28 31 33 35 38 40 42 43 46 48 50 52 54

GFSMW_500_spd_135.txt.gz
Wind_Speed
32 32 32 30 31 31 31 32 34 36 37 38 40 43 45 48 50 52 53 55 56 57 59 58 59 61 63 63 65 62 62 65 64 65 66 66 64 64 66 65 61 58 58
32 30 31 33 33 34 34 35 35 38 39 41 43 46 48 51 54 57 60 63 63 61 60 59 59 60 60 62 64 64 64 64 65 66 66 66 67 67 66 67 65 64 64
33 33 33 34 33 35 36 37 39 41 45 47 50 52 54 56 61 65 67 63 62 55 54 55 57 59 60 61 62 63 64 65 65 67 67 66 68 66 65 66 64 66 67
34 34 34 33 35 36 38 40 44 47 49 52 53 54 58 62 66 68 65 58 53 52 56 57 60 62 64 65 64 65 66 67 67 69 72 71 68 70 66 65 67 68 69
33 36 36 35 37 39 41 42 45 48 51 53 55 58 63 67 70 67 62 59 56 54 49 49 49 51 53 57 61 64 66 66 65 66 69 68 69 71 73 68 63 62 66
34 36 36 37 39 40 42 44 47 50 51 54 57 61 64 64 61 59 56 55 50 47 50 48 48 49 52 51 56 60 60 58 59 61 64 64 64 60 59 61 61 62 54
43 43 41 41 41 42 45 47 48 50 52 55 58 61 61 58 56 54 52 47 46 46 47 49 49 51 51 53 51 51 52 53 54 52 52 53 56 56 56 58 52 46 45
48 45 43 41 42 45 47 47 46 49 52 56 58 57 58 54 55 51 48 47 48 49 48 50 51 52 53 54 54 50 51 50 43 45 49 47 51 52 50 48 50 46 48
49 48 45 43 45 47 47 45 46 49 52 55 55 54 54 53 54 51 51 51 52 49 48 52 52 50 50 51 53 45 45 50 52 52 51 49 41 41 43 42 41 37 31
51 48 47 47 47 49 47 47 48 49 52 53 54 54 54 54 53 50 50 50 48 46 47 48 46 47 46 47 47 45 41 42 42 42 40 40 36 37 36 34 36 35 32
52 50 48 49 50 48 48 48 49 49 51 53 54 55 54 55 52 47 45 46 45 42 44 45 44 42 44 44 42 38 39 39 36 35 35 33 34 34 32 35 35 37 33
50 50 49 47 49 45 47 49 49 52 54 55 55 53 54 51 44 47 47 46 45 45 45 44 42 39 39 38 37 33 38 35 31 31 32 31 35 36 37 33 36 34 31
42 43 45 47 50 43 45 49 52 55 59 55 55 53 54 51 49 48 49 48 47 47 45 44 40 35 33 31 35 27 28 23 27 32 34 36 36 37 36 37 35 34 32
41 46 42 40 37 45 49 51 55 57 58 51 49 48 46 45 46 47 49 49 47 43 43 37 33 28 28 25 28 26 20 18 21 35 36 36 37 39 41 40 37 36 34
35 42 42 45 48 50 54 57 60 62 54 47 45 45 43 42 44 45 44 44 42 40 34 26 22 21 20 19 18 21 21 19 17 20 23 28 33 37 41 41 41 37 34
50 53 53 51 50 52 57 56 56 52 46 42 41 39 39 41 43 42 40 39 38 32 23 17 13 14 14 13 11 12 15 17 19 19 22 23 27 30 33 34 35 37 35
54 57 55 52 54 61 59 51 47 46 42 43 38 41 39 43 39 36 34 33 29 19 14 12 14 13 12 11 11 12 13 14 15 18 20 21 21 22 24 26 27 29 31
54 56 55 49 48 48 40 36 38 41 42 37 38 38 42 38 31 27 25 23 18 12 12 14 12 9 11 11 12 13 15 15 15 15 15 17 18 19 19 19 21 22 23
47 46 43 46 48 43 38 41 45 42 37 32 33 41 36 29 24 22 20 17 13 13 11 9 9 10 7 9 11 13 13 15 17 16 16 17 17 16 16 17 16 17 18
49 50 52 51 44 38 38 42 41 37 35 35 40 38 26 25 23 21 20 13 13 11 10 6 4 7 9 10 11 11 11 11 11 12 14 15 15 16 17 19 19 20 20
46 46 45 42 38 37 41 40 35 31 31 36 37 25 24 22 20 18 14 12 8 3 3 5 7 8 9 10 11 12 12 13 12 13 14 14 15 17 18 19 20 22 24
42 41 39 36 35 39 40 36 30 31 36 40 25 23 20 19 17 14 12 8 4 3 4 6 8 9 10 11 11 10 9 9 9 10 12 14 16 18 20 22 25 28 31
37 35 34 33 35 37 34 30 32 35 33 22 22 20 18 16 14 13 11 7 5 6 7 7 8 8 9 10 10 10 11 11 12 13 15 17 20 23 25 28 31 34 38
32 33 33 35 37 32 30 30 32 26 22 22 20 18 17 16 13 12 10 9 9 10 11 11 12 12 13 14 14 15 15 17 19 21 23 26 28 31 34 36 38 41 43
34 33 34 37 36 32 30 25 23 23 22 20 17 17 17 16 16 15 14 13 13 13 14 15 17 18 20 22 22 22 23 24 26 28 28 29 30 33 35 38 41 43 46
39 38 39 38 33 28 25 24 23 22 21 18 18 18 17 17 18 18 18 18 18 18 18 20 21 22 24 25 26 26 27 28 28 29 31 32 35 38 41 43 46 49 51